GFSFLT1_925_thetae_027.txt.gz
Theta_e
327 327 327 326 326 326 325 324 326 327 326 327 326 327 328 326 326 324 323 323 326 327 328 330 328 328 328 327 326 325 323 323 323
328 327 326 325 326 327 326 326 326 324 326 327 327 326 325 325 324 326 324 323 325 328 329 329 328 327 326 326 325 325 324 323 323
327 327 327 327 328 327 328 327 328 327 326 326 326 325 324 324 323 325 326 323 323 327 329 330 330 330 327 326 326 325 325 324 323
326 328 328 328 328 328 328 329 330 331 329 326 326 325 323 324 323 324 324 325 324 323 326 328 330 331 331 328 327 326 325 325 324
327 326 324 325 323 327 325 323 326 329 331 328 325 325 324 324 322 322 323 324 324 324 324 326 328 329 330 332 328 327 327 325 325
330 329 327 324 322 321 322 325 323 323 324 325 326 326 327 325 322 321 321 321 324 325 325 325 326 328 329 329 332 329 328 327 326
328 328 325 324 323 323 322 322 322 322 327 328 328 328 328 326 325 323 321 318 321 323 325 325 325 326 328 329 329 331 331 329 327
328 328 328 328 328 327 327 327 328 328 327 327 327 327 327 327 327 326 324 322 321 323 324 323 325 325 326 327 328 329 329 331 329
328 328 328 328 328 328 328 328 328 329 329 328 328 328 328 328 328 327 327 325 324 325 326 326 324 324 325 325 326 327 328 328 330
328 328 328 328 329 329 329 329 330 330 330 330 330 330 329 329 329 329 329 328 327 326 326 328 328 327 325 325 325 325 326 328 329
331 331 330 330 330 329 329 329 329 330 330 330 329 329 329 329 329 329 329 328 328 327 327 328 329 330 330 328 326 325 326 326 327
332 331 331 331 330 329 329 330 330 330 330 329 329 329 328 328 328 328 328 328 328 328 328 327 328 328 331 331 331 329 327 326 326
330 330 329 330 330 330 329 329 327 326 326 325 325 324 324 324 325 325 326 326 326 327 327 327 326 327 327 328 330 331 330 329 328
329 329 326 324 324 323 320 318 318 318 317 318 318 318 319 320 320 321 322 323 325 325 326 325 325 325 324 325 326 326 328 328 329
318 316 314 313 313 312 311 311 311 311 311 311 311 312 313 314 314 319 321 320 323 321 319 321 323 324 325 324 325 326 326 326 326
311 311 310 310 310 310 309 309 309 309 309 309 310 310 310 312 313 310 308 310 312 313 313 315 319 320 319 322 322 324 325 325 326
308 308 308 308 307 307 306 305 305 305 305 306 306 309 309 310 306 304 308 308 309 311 310 311 312 312 311 312 317 318 320 320 322
305 304 304 303 303 302 301 301 301 302 301 301 303 306 305 306 305 305 306 305 304 305 305 304 306 307 309 309 312 313 314 315 316
300 300 300 299 298 298 298 298 299 299 299 298 299 300 302 305 306 302 301 302 302 301 302 302 302 304 308 307 308 310 309 309 311
298 297 297 296 296 296 296 296 297 298 296 297 298 299 302 302 300 299 300 299 299 299 301 302 303 301 300 305 305 303 303 305 306

GFSFLT1_925_thetae_033.txt.gz
Theta_e
329 328 325 324 322 322 321 319 320 322 324 323 327 327 327 327 325 323 325 324 323 324 328 329 328 330 329 329 330 329 327 326 324
327 326 326 326 323 324 326 325 325 326 325 325 325 325 325 323 322 323 321 323 324 325 326 330 329 329 329 328 327 327 327 326 326
328 326 326 326 325 327 327 329 330 330 331 329 329 328 324 323 321 319 319 322 325 328 326 326 329 330 330 330 330 329 327 326 326
328 326 324 325 328 328 327 326 328 329 330 331 331 328 326 325 324 323 321 317 323 327 328 327 327 327 329 331 329 333 330 328 327
327 326 324 325 325 323 320 322 325 324 323 322 322 323 325 325 326 325 323 322 322 327 327 327 327 327 327 329 330 331 334 332 330
327 328 328 327 325 322 320 320 322 322 323 324 325 327 328 327 327 327 326 324 322 327 326 325 327 328 327 327 328 329 331 331 333
328 329 327 326 327 327 326 326 327 327 327 327 327 327 327 327 327 327 327 326 326 327 325 323 323 327 328 328 327 327 328 329 330
327 328 327 327 327 327 328 328 328 328 328 328 328 328 328 328 328 328 328 327 328 329 329 327 326 326 328 329 330 329 328 328 328
327 327 327 327 327 328 328 328 328 329 329 329 329 329 329 329 328 329 329 329 329 330 330 330 330 329 330 331 331 331 329 328 328
329 329 329 329 329 329 329 329 329 329 329 329 328 328 327 325 325 326 325 325 325 326 329 330 330 331 331 331 330 330 330 331 329
331 331 331 330 330 329 329 327 325 322 320 320 320 319 319 320 319 318 319 320 320 321 325 327 328 329 328 329 329 328 328 328 328
331 330 329 326 327 325 322 319 317 317 313 312 311 311 311 312 311 311 312 312 314 315 316 317 323 325 326 327 328 327 326 326 326
327 324 321 315 316 314 313 310 309 309 308 307 308 307 306 305 305 307 309 309 306 308 308 308 310 313 317 321 323 324 324 324 325
318 316 312 311 311 310 309 307 304 303 303 302 301 301 300 302 306 306 305 302 302 301 305 306 305 306 308 310 312 314 315 315 316
313 309 309 308 308 306 302 300 299 300 300 298 300 297 303 302 303 299 298 302 299 303 300 299 301 301 302 304 305 306 308 309 311
308 306 304 303 302 300 298 298 297 298 298 299 296 298 302 300 298 296 302 298 301 299 297 300 298 297 297 298 302 304 305 305 306
303 301 300 299 298 296 296 296 297 298 297 296 296 297 299 300 294 298 298 300 297 295 297 295 295 296 297 300 300 300 300 300 303
299 298 297 296 295 294 294 294 294 297 296 295 296 295 297 295 298 297 299 296 294 295 293 294 295 297 298 295 295 296 296 298 300
297 296 295 294 294 293 293 293 293 293 295 294 295 293 293 295 297 297 293 294 293 293 293 294 294 296 294 294 293 294 295 295 296
295 294 294 293 292 292 292 292 291 292 294 292 293 292 292 293 293 291 292 292 292 292 292 292 295 294 293 292 291 292 291 293 295

GFSFLT1_925_thetae_039.txt.gz
Theta_e
329 328 323 322 321 322 323 321 324 324 322 321 324 326 328 327 322 318 318 319 323 326 328 326 328 329 329 329 329 331 331 331 329
329 325 324 323 321 322 325 326 326 325 326 327 327 327 324 323 322 322 321 319 316 325 328 329 327 329 331 329 328 329 329 328 327
330 328 326 324 323 324 324 326 327 328 328 329 330 330 328 327 326 326 325 324 321 324 328 329 330 328 327 328 330 331 329 331 330
330 328 326 324 324 326 326 325 326 326 327 327 324 323 323 324 325 326 326 326 324 327 327 328 329 330 330 329 328 328 328 331 330
328 326 325 325 326 325 323 321 321 323 323 324 325 325 325 326 326 327 327 327 327 329 331 331 331 330 330 330 330 329 329 328 330
326 326 327 327 326 326 325 325 325 326 326 327 327 327 327 327 327 327 327 327 327 329 330 331 332 331 328 326 327 330 331 330 330
324 326 327 327 327 326 327 327 327 327 327 328 328 328 328 328 328 327 326 327 332 333 333 332 331 332 330 329 328 329 331 331 331
327 327 327 327 327 326 327 327 327 327 328 328 327 327 326 325 324 324 320 320 325 328 328 329 329 330 330 331 332 331 330 331 331
327 326 326 326 327 327 327 327 327 327 326 323 320 318 316 315 313 312 313 313 315 319 321 323 324 326 329 331 331 330 330 330 330
326 326 327 329 329 328 327 324 320 321 321 316 314 313 311 309 309 307 308 308 309 314 317 318 319 321 323 325 326 326 326 327 327
328 329 328 327 323 322 321 322 316 313 310 308 306 305 303 302 301 304 303 304 305 306 312 311 313 314 314 316 317 318 319 319 319
329 326 322 319 317 315 315 312 308 305 303 302 301 300 299 298 302 302 300 302 300 300 304 307 306 307 307 309 311 312 312 312 313
327 324 319 315 314 311 308 305 301 300 300 299 299 299 297 299 303 299 298 300 298 298 298 298 298 300 302 304 304 306 309 311 311
322 318 311 308 307 304 301 299 298 298 297 296 297 297 297 300 299 297 298 297 296 297 295 295 293 294 298 299 302 304 305 305 306
313 307 305 303 302 300 298 296 295 297 294 294 295 296 296 300 298 295 296 295 296 294 293 292 291 291 295 296 299 301 302 303 303
305 303 302 300 299 296 295 294 293 294 293 293 294 296 297 297 297 293 295 294 295 292 292 290 290 290 292 293 295 298 298 298 299
303 301 299 297 295 294 293 292 292 292 293 293 293 292 293 296 296 293 293 295 291 292 289 290 290 291 291 289 294 293 294 296 297
300 299 297 295 293 292 292 291 291 291 291 292 291 289 289 290 292 293 294 292 291 289 289 289 290 291 290 290 291 291 293 294 295
297 296 294 293 292 291 291 290 290 290 290 290 291 290 291 289 289 291 290 289 287 288 288 289 289 289 289 290 289 291 291 292 294
295 293 292 291 291 290 290 290 289 289 289 288 288 288 288 289 288 288 287 286 287 287 288 288 288 288 289 289 289 289 290 291 293

GFSFLT1_925_thetae_042.txt.gz
Theta_e
328 327 322 320 320 320 320 320 324 325 323 318 319 324 325 322 319 319 318 317 316 323 327 328 327 328 330 330 329 329 330 330 330
329 326 323 322 320 322 323 323 322 322 326 329 328 328 326 325 324 325 325 324 322 324 326 329 330 328 328 330 328 328 328 328 328
331 328 326 325 324 324 324 326 328 329 329 330 329 329 328 328 326 326 326 326 325 328 327 327 329 330 330 328 327 330 331 332 332
331 330 329 328 327 327 328 328 328 328 328 327 325 323 323 324 325 325 326 326 326 330 331 330 329 330 330 331 330 329 329 328 329
330 327 326 326 328 328 327 325 325 325 325 326 326 326 326 326 327 327 327 327 327 330 331 333 333 332 332 331 331 331 331 331 330
327 326 327 327 326 326 327 327 327 327 327 327 327 327 327 327 327 327 326 326 330 332 332 331 331 333 333 332 331 330 331 332 332
325 325 326 327 327 326 326 327 327 327 327 327 327 327 327 327 326 325 323 321 326 329 329 329 330 331 332 331 331 331 331 331 331
324 326 327 326 326 326 326 327 327 327 327 326 324 319 317 317 316 315 315 315 320 321 322 324 325 325 326 329 329 330 331 331 332
328 326 326 326 326 327 328 327 327 323 319 318 316 314 313 312 310 309 309 309 313 318 319 320 320 322 324 325 325 324 325 326 326
327 325 326 328 328 328 324 320 321 318 314 310 308 306 304 303 302 303 304 305 307 314 315 314 316 316 316 317 318 319 319 320 320
326 328 328 326 323 318 317 314 314 311 307 303 302 300 300 298 301 302 301 302 301 306 310 309 309 309 310 311 312 312 313 314 315
329 326 322 317 314 313 312 309 305 303 302 301 300 299 298 298 302 299 300 300 298 299 302 302 302 303 304 306 307 308 309 311 312
324 320 317 311 310 307 304 302 301 300 299 299 299 297 297 299 298 297 298 297 296 296 296 295 295 298 300 302 303 306 306 307 307
319 317 311 305 304 303 301 299 298 297 297 297 297 297 296 299 296 296 296 296 294 294 293 292 291 292 296 299 300 300 304 304 305
315 309 304 302 302 300 298 296 295 294 293 295 295 296 296 300 297 295 294 295 294 292 291 291 290 289 293 295 296 297 300 300 300
305 303 302 300 300 296 295 294 293 293 292 293 294 295 294 295 296 294 292 293 293 291 291 289 288 288 290 291 292 296 297 297 299
302 302 300 298 296 294 293 292 292 291 291 292 291 290 292 293 293 293 294 292 293 290 288 287 287 289 288 288 291 292 293 295 296
301 300 298 295 293 292 291 291 290 290 290 292 290 288 288 289 290 291 291 292 289 288 287 287 288 287 287 288 288 290 291 293 295
298 296 294 293 291 291 290 290 289 289 289 290 288 289 289 287 287 290 289 288 286 286 286 287 286 287 287 287 288 289 290 292 293
295 293 292 291 290 290 290 289 289 288 288 287 287 287 287 288 287 286 286 285 285 285 286 285 287 286 287 287 287 289 290 291 292

GFSFLT1_925_thetae_048.txt.gz
Theta_e
328 325 323 321 322 323 323 324 325 324 321 323 325 326 325 327 328 328 328 327 323 323 326 326 328 330 329 329 331 331 330 331 331
328 324 322 321 322 323 324 325 324 323 328 328 329 329 328 330 330 330 330 330 326 331 332 330 328 330 332 333 329 332 333 329 329
328 325 324 324 324 325 326 327 326 325 326 326 325 324 323 329 330 331 331 329 327 331 333 333 333 330 330 331 333 330 329 329 332
331 328 328 327 327 327 329 328 327 327 328 327 326 326 326 330 331 330 330 329 327 332 334 334 334 335 334 333 333 333 333 332 332
331 329 327 327 328 328 329 328 328 327 327 327 327 327 328 330 330 330 329 326 329 332 332 332 332 332 331 332 332 333 333 333 333
330 328 326 326 326 327 328 327 327 327 327 327 327 327 328 328 327 327 323 322 326 327 327 327 328 328 328 330 332 331 331 331 332
328 327 326 326 326 326 326 326 327 328 329 327 323 322 320 320 319 318 317 317 321 323 324 325 325 326 327 328 327 326 327 329 329
327 328 327 328 327 329 328 328 328 324 321 319 318 316 316 315 314 313 310 312 317 320 322 321 321 321 321 321 322 322 322 323 323
328 328 328 328 328 329 329 326 319 316 313 311 311 310 308 307 308 307 304 308 317 317 319 317 315 315 315 317 316 315 316 317 318
329 328 328 328 327 325 321 318 314 312 310 307 306 306 303 304 304 306 303 305 313 313 312 311 310 310 311 311 311 312 313 314 315
329 328 326 325 324 324 319 312 310 307 305 304 303 303 301 304 302 304 304 303 307 307 306 305 304 304 305 306 307 308 309 309 310
329 326 324 317 316 315 311 307 304 304 302 303 302 301 300 303 301 302 301 300 298 298 297 297 298 299 300 302 304 305 306 305 306
327 324 320 317 308 306 305 304 303 302 301 301 301 300 299 300 300 300 299 298 297 296 294 292 292 292 297 299 302 303 303 302 304
324 322 316 307 304 303 302 302 301 300 300 299 299 300 300 299 299 299 297 296 296 296 294 292 292 292 295 297 298 299 300 301 302
323 316 308 303 302 301 300 300 298 298 298 298 299 299 300 298 299 298 296 295 295 294 293 292 292 292 292 294 295 297 298 298 299
319 313 305 301 300 298 298 298 298 297 296 298 299 299 297 299 299 297 296 295 294 293 292 292 291 292 291 292 292 294 295 296 298
312 304 301 299 297 297 296 297 297 296 295 296 298 301 299 298 298 296 295 294 293 292 291 291 291 291 291 291 291 291 292 294 295
304 301 299 298 296 295 295 295 296 296 295 294 296 299 300 296 295 296 294 294 292 291 291 290 290 290 290 290 290 290 291 292 294
299 299 296 295 295 295 293 293 294 294 294 294 292 292 293 295 295 294 294 292 291 291 290 290 290 290 289 289 289 289 290 291 292
297 296 294 294 294 293 293 293 292 292 292 292 292 291 291 292 293 294 294 292 292 291 290 289 289 289 289 289 288 288 289 290 291

GFSFLT1_925_thetae_051.txt.gz
Theta_e
328 326 323 322 323 325 325 326 326 323 322 325 328 329 326 330 330 330 330 330 326 329 331 329 326 329 331 330 329 331 333 331 331
327 326 325 325 326 326 327 327 325 323 329 331 331 328 326 329 331 331 331 332 327 331 333 333 333 330 330 332 333 332 331 334 332
328 326 326 326 327 327 328 327 326 325 325 326 325 323 324 331 331 331 332 331 328 333 334 334 335 335 334 333 332 333 334 331 330
329 327 327 327 327 327 327 327 326 326 327 326 326 327 327 329 331 331 331 329 330 333 334 333 333 334 333 333 334 334 334 334 335
331 326 327 328 328 327 328 328 328 327 327 327 327 327 330 330 330 329 329 325 328 330 329 329 330 330 330 332 333 332 332 332 332
328 330 325 326 326 326 327 327 327 327 328 328 327 327 328 327 326 325 323 320 325 325 326 326 327 328 330 328 328 328 329 329 329
330 328 326 326 326 326 326 327 327 329 330 328 324 323 322 321 321 318 318 317 322 323 324 324 324 323 323 323 323 323 323 324 324
327 329 327 328 326 329 329 330 330 325 323 321 321 318 318 316 315 314 309 310 318 322 322 320 318 318 318 319 318 317 317 318 319
328 329 329 329 329 330 331 328 323 320 317 315 315 313 312 309 310 309 307 306 314 319 316 315 314 313 313 314 314 314 315 316 316
329 329 328 329 329 329 326 322 319 317 315 312 308 307 306 305 307 307 306 311 314 312 311 309 309 308 308 309 309 310 311 311 311
330 329 330 328 325 322 321 316 314 312 308 307 306 305 305 304 304 305 305 306 307 307 305 304 303 303 304 305 305 307 307 308 307
331 329 325 321 318 315 314 311 309 307 306 306 305 303 303 303 302 304 303 302 300 298 297 296 296 297 300 302 304 305 305 305 305
329 324 321 316 314 312 310 308 307 305 304 303 303 302 302 302 302 303 301 300 299 299 297 295 294 294 297 300 302 302 302 302 304
324 319 322 314 310 308 306 305 304 303 302 301 301 301 302 302 301 301 299 298 298 297 296 294 293 294 295 297 299 300 301 302 301
319 313 312 309 307 305 304 303 301 300 300 301 301 301 302 300 301 300 299 298 297 296 295 294 293 293 294 295 296 297 298 299 300
311 310 307 305 304 303 303 301 301 300 298 300 301 301 300 301 300 300 298 298 296 295 294 293 293 293 293 293 294 295 296 297 298
315 312 306 302 301 300 300 300 300 298 297 298 300 304 301 300 300 299 298 297 295 294 293 293 292 292 292 292 293 293 293 295 296
308 308 304 303 300 299 298 298 298 298 297 295 297 302 303 297 297 297 297 296 295 293 293 292 292 291 291 291 291 291 292 292 294
303 300 300 300 298 297 296 296 296 297 297 296 294 294 294 297 297 297 296 295 293 294 293 292 291 291 291 291 291 291 291 291 293
300 300 301 300 296 295 295 295 295 294 295 294 294 294 294 294 294 295 295 294 294 293 293 292 292 291 290 290 289 290 290 290 291

GFSFLT1_925_thetae_054.txt.gz
Theta_e
327 325 322 319 322 326 327 327 326 324 324 326 327 326 326 331 331 330 331 331 327 332 333 333 331 328 329 330 332 331 332 333 332
326 324 324 324 326 326 324 324 323 324 329 331 329 326 326 330 330 330 331 332 329 334 333 333 335 335 333 331 332 333 334 331 331
327 326 326 327 327 327 327 326 324 324 325 324 323 324 326 331 331 331 331 330 331 334 333 333 334 334 334 334 335 333 333 335 334
328 326 327 328 327 326 325 325 324 325 325 326 326 327 329 330 330 330 328 327 330 332 330 331 332 331 332 333 333 333 333 333 334
326 326 326 327 327 326 326 326 326 326 327 327 327 327 329 329 328 328 327 325 328 327 328 328 329 331 330 329 329 330 330 330 330
327 330 324 325 325 326 326 326 327 327 329 327 325 325 323 324 323 321 321 320 325 326 326 328 326 325 325 325 325 324 324 325 325
330 329 325 325 325 325 326 327 329 329 329 324 323 321 320 319 318 318 316 313 319 324 324 322 321 321 321 320 319 319 319 320 320
330 326 325 325 325 328 330 330 327 324 322 319 318 316 316 314 311 312 310 314 322 323 319 318 317 316 316 316 315 315 316 317 317
327 329 328 329 329 330 330 326 324 319 316 315 314 312 311 308 308 308 307 307 320 318 316 313 312 311 311 311 311 311 312 312 312
328 329 329 329 329 329 328 322 319 317 315 311 307 306 306 305 306 306 307 309 314 313 310 309 308 307 307 307 307 308 309 309 309
329 329 329 329 328 327 322 319 316 313 311 307 306 305 304 303 305 305 305 304 307 306 306 305 304 304 304 305 306 306 307 307 307
329 329 329 328 325 324 319 315 311 308 307 305 304 304 303 302 303 304 303 302 301 299 298 297 298 298 301 303 304 305 305 305 305
330 329 325 320 315 314 313 309 307 306 305 303 302 302 302 302 302 303 301 300 299 299 298 297 297 297 298 300 302 303 303 303 304
331 328 322 316 312 311 310 307 305 303 302 301 300 301 301 303 301 301 300 299 298 298 297 295 294 295 296 297 299 300 301 301 302
327 323 318 312 311 308 305 304 303 301 299 300 301 301 301 301 300 300 299 298 298 296 295 294 293 293 295 296 297 298 299 299 300
322 317 311 310 308 304 303 302 301 299 297 300 300 301 300 301 300 300 299 298 297 296 294 294 293 292 292 293 294 296 296 297 298
318 313 309 306 304 303 301 301 300 298 296 297 299 299 299 299 299 300 298 297 296 295 294 293 293 292 292 291 293 293 294 295 296
314 309 308 308 306 306 305 301 299 298 296 295 297 297 298 294 298 300 298 296 296 295 294 293 293 292 291 291 291 291 293 293 295
310 309 309 308 306 300 298 297 297 298 296 295 294 294 294 293 292 295 296 295 294 294 294 293 293 292 292 291 291 291 291 292 293
308 308 305 301 300 298 296 295 295 295 295 295 294 293 294 294 292 291 293 294 293 292 292 292 292 291 291 291 290 290 291 291 292

GFSFLT1_925_thetae_057.txt.gz
Theta_e
327 326 326 327 327 329 329 328 328 326 323 321 321 324 330 330 328 329 330 330 331 333 332 332 334 329 324 329 332 333 333 332 333
326 325 325 326 328 329 328 327 326 325 326 325 325 325 330 330 330 330 331 331 332 335 332 333 333 334 335 334 332 332 333 335 332
326 326 326 327 327 328 326 324 321 323 324 322 323 326 328 330 331 329 328 328 333 333 332 332 333 332 333 334 334 334 333 334 334
327 327 327 328 326 324 323 322 322 323 325 326 327 328 330 329 329 328 327 327 331 330 331 331 331 332 331 331 331 331 331 332 331
324 323 325 325 323 322 322 323 325 326 327 327 326 328 327 328 327 326 324 324 327 328 328 330 329 328 328 327 326 325 326 326 326
324 324 324 324 324 324 325 326 326 328 328 324 324 323 322 322 321 321 319 320 325 327 328 326 324 323 324 322 322 321 322 322 323
326 329 324 324 324 325 326 327 328 328 328 322 322 318 317 317 317 317 315 315 322 325 323 321 320 320 319 319 318 318 319 319 319
329 328 324 324 325 326 328 329 326 321 320 317 316 316 315 313 311 311 309 317 323 321 319 317 315 315 314 314 313 314 314 314 313
330 326 325 327 326 329 330 328 324 320 316 315 315 313 311 308 307 307 306 315 321 318 314 313 311 311 310 310 310 310 311 311 311
329 328 328 329 328 330 326 323 322 318 315 310 307 306 305 305 305 305 306 309 315 312 310 309 308 308 307 307 308 308 309 309 309
326 328 329 329 329 328 325 320 319 318 315 308 306 305 304 303 304 304 305 305 306 307 306 304 304 304 305 306 307 307 307 307 307
327 328 328 329 327 325 323 319 316 313 308 307 305 303 303 302 303 304 303 302 301 299 300 300 301 301 302 304 305 305 305 305 306
328 328 328 327 326 324 320 315 310 307 306 305 302 302 302 301 302 303 302 301 300 299 298 297 298 298 299 301 302 303 303 304 303
329 328 327 326 321 316 313 309 307 305 303 301 301 300 301 302 302 302 301 300 299 298 296 295 294 294 297 299 300 301 301 301 302
330 328 325 321 316 313 310 307 304 303 301 300 300 301 301 301 301 300 300 299 298 297 296 295 294 293 294 295 296 298 299 300 300
330 327 322 317 314 312 308 305 304 300 298 300 299 300 300 301 300 300 299 298 297 297 295 294 294 293 293 292 294 296 297 297 298
330 326 319 313 312 307 305 305 302 299 296 297 298 299 299 299 300 300 300 298 297 295 295 294 293 293 293 292 292 293 294 295 297
327 321 314 311 309 307 303 302 301 298 296 295 297 296 298 294 297 299 298 297 295 294 294 293 293 293 292 292 291 291 293 294 295
323 317 310 309 308 306 303 300 299 298 297 296 294 294 294 292 291 295 296 295 294 293 292 292 292 292 291 291 291 291 292 293 294
314 315 310 310 308 305 299 298 297 297 296 296 294 293 294 293 291 291 292 294 293 292 292 291 291 291 291 291 291 291 292 292 293

GFSFLT1_925_thetae_060.txt.gz
Theta_e
329 329 331 332 333 333 332 331 331 328 323 318 325 329 329 328 328 328 330 330 333 333 331 331 333 333 327 326 330 333 334 333 332
326 326 329 328 330 331 331 330 328 326 322 324 324 327 329 328 329 330 330 329 334 335 332 333 335 334 334 334 334 333 333 334 334
326 326 327 328 329 330 329 328 323 321 322 322 324 326 329 329 329 328 327 328 333 332 332 332 333 333 333 333 333 334 333 333 333
327 327 327 328 329 328 325 322 322 322 324 326 327 328 329 328 328 326 327 328 330 330 330 331 332 331 330 329 328 328 328 329 330
326 325 328 329 326 323 322 322 324 326 326 326 327 327 326 328 327 324 323 325 328 329 330 329 328 327 325 325 324 324 325 325 326
323 323 324 323 322 322 323 325 326 327 325 325 323 322 322 325 321 320 318 322 328 328 326 324 324 323 322 321 320 321 322 321 321
323 322 323 323 324 324 326 326 328 328 323 323 319 318 318 319 317 315 314 319 326 324 322 321 320 319 318 317 316 317 317 316 315
326 326 324 324 324 325 326 327 325 325 324 318 317 315 314 313 312 311 309 321 324 320 318 316 315 314 313 313 313 313 313 313 312
329 328 324 324 324 326 328 328 322 318 317 314 313 313 312 309 307 307 307 323 320 317 314 312 311 310 310 310 310 310 310 311 310
330 328 324 324 325 328 329 327 319 315 314 312 309 307 306 305 305 305 307 314 315 313 311 310 308 308 308 309 309 309 309 309 309
331 328 327 327 327 328 327 324 318 316 312 309 306 305 304 304 304 304 306 307 309 308 306 305 305 305 305 307 307 307 308 307 308
329 328 328 328 328 328 322 318 317 315 311 306 305 303 303 302 303 304 304 303 301 301 302 302 302 302 303 304 305 306 306 305 305
327 326 328 328 327 325 319 318 316 313 307 305 303 302 302 301 302 303 302 301 300 299 298 298 298 299 300 302 303 303 303 304 304
326 327 328 327 324 322 321 319 314 308 305 302 301 300 301 301 302 302 301 300 299 298 297 296 295 294 297 299 300 301 301 302 302
326 327 327 326 324 321 318 316 311 305 303 300 300 300 301 301 301 301 300 299 298 297 297 295 294 294 294 295 296 298 299 300 300
327 328 326 323 323 321 315 311 305 301 299 300 299 300 300 300 300 300 299 298 298 297 295 294 294 293 293 292 294 295 296 297 298
328 328 325 322 319 314 312 308 303 300 297 298 299 299 299 299 300 300 299 298 297 295 294 293 293 292 292 292 292 293 294 295 297
329 328 326 321 317 315 309 305 304 300 297 296 298 297 298 294 296 298 299 297 295 294 293 293 292 292 291 291 291 291 293 294 295
329 327 324 318 313 312 306 304 303 302 298 295 295 295 295 293 293 294 295 294 294 293 292 292 291 291 291 291 290 291 293 293 295
325 322 315 314 312 307 306 304 301 299 297 296 294 293 293 293 291 291 292 293 293 292 291 290 290 290 289 289 289 291 292 293 294

GFSFLT1_925_thetae_063.txt.gz
Theta_e
331 331 332 334 333 334 334 332 329 328 321 325 328 328 328 328 327 329 330 330 333 332 332 332 333 334 331 326 329 332 333 333 332
329 331 331 333 333 332 332 331 330 326 320 323 326 328 328 328 328 329 328 334 334 334 334 333 334 334 334 334 334 334 333 333 333
327 329 330 330 332 332 331 329 328 321 324 324 325 328 329 329 328 327 327 330 332 333 332 332 333 332 331 330 330 330 331 332 331
327 327 328 329 330 331 330 326 322 322 323 325 326 328 328 328 327 327 327 328 330 331 331 331 330 329 326 326 326 327 327 327 328
327 326 328 329 329 326 323 323 323 325 326 326 327 328 328 327 326 324 323 327 330 330 329 327 327 324 323 323 323 324 324 323 323
324 324 327 327 324 323 323 324 326 326 326 326 325 323 325 326 322 319 318 327 328 327 325 325 323 321 320 319 320 320 319 318 318
321 323 324 323 323 323 325 326 327 326 324 323 319 320 322 320 318 315 317 324 326 323 321 320 319 318 316 315 315 315 315 315 314
322 322 324 324 325 326 327 327 327 327 324 321 318 316 316 315 313 311 315 324 323 320 317 315 314 313 313 312 312 312 312 312 312
324 323 323 324 324 326 326 327 323 323 325 316 314 312 311 310 308 307 309 324 320 317 314 313 311 311 311 311 310 311 311 311 310
326 327 325 323 324 325 327 327 322 317 315 313 310 308 306 305 305 307 314 318 316 313 312 310 308 308 309 309 309 309 309 309 309
329 329 327 324 324 326 327 328 319 314 311 309 308 306 305 304 304 305 310 311 311 309 307 306 306 305 306 307 307 308 308 307 307
330 330 328 325 325 326 327 327 317 314 312 310 307 305 303 302 303 305 305 305 303 304 303 303 303 303 304 305 306 305 305 306 306
329 330 330 326 326 327 327 323 316 313 311 307 305 303 302 301 302 303 303 302 300 299 298 298 298 299 300 302 303 304 304 304 304
328 329 329 327 327 327 325 318 315 314 309 304 302 301 301 301 302 303 302 301 299 298 297 296 294 294 297 299 299 300 301 302 302
328 328 326 326 327 325 319 317 314 312 305 301 300 300 301 301 301 302 301 299 298 297 297 295 294 294 294 295 297 298 298 299 300
328 327 325 327 325 323 319 315 312 305 301 299 299 300 300 300 300 300 299 299 297 297 296 294 294 293 293 292 293 296 296 297 298
328 327 326 326 324 319 317 316 308 301 299 298 298 298 298 300 299 299 299 298 297 296 294 293 293 292 292 292 291 292 295 296 298
328 327 326 326 324 321 317 313 311 302 299 298 299 297 297 296 296 298 298 298 296 295 294 292 292 291 291 291 291 291 294 295 296
327 327 327 326 321 319 315 311 307 305 301 296 296 296 296 293 292 294 295 295 294 293 292 292 291 290 290 289 289 291 293 294 295
326 326 325 322 317 314 313 306 304 305 302 298 295 294 293 293 291 290 292 293 293 293 291 291 290 289 289 288 288 289 291 292 293

GFSFLT1_925_thetae_066.txt.gz
Theta_e
331 333 334 334 332 334 335 334 328 324 325 330 328 328 328 327 328 329 330 333 332 334 333 335 335 335 333 328 330 331 333 333 333
332 331 333 333 333 333 333 330 329 324 326 328 328 328 327 327 329 328 332 333 333 334 333 334 334 333 333 333 332 334 332 332 333
330 331 332 332 332 331 332 331 330 326 327 325 326 328 328 329 328 328 330 331 333 331 332 332 332 330 328 327 328 329 330 330 330
329 330 329 331 332 331 329 328 324 326 325 324 326 328 328 327 326 327 327 328 331 331 331 330 328 326 324 325 325 325 325 324 325
327 326 328 330 331 329 326 323 324 327 326 326 327 328 327 327 325 324 325 330 330 329 327 326 325 323 322 323 322 322 321 320 320
325 324 328 329 328 323 323 325 327 326 326 326 326 323 326 325 322 319 324 329 327 326 325 323 322 320 318 318 318 317 317 316 316
323 323 326 327 325 324 325 327 327 326 325 323 320 322 323 320 317 315 319 328 325 322 321 319 318 316 315 315 315 314 315 314 313
323 323 325 324 325 326 328 328 327 325 323 322 318 318 318 315 313 317 324 326 322 319 316 315 314 313 313 313 313 313 313 312 312
322 322 323 324 325 326 327 327 327 325 324 318 316 314 313 311 309 307 317 323 320 316 314 313 312 312 311 311 311 311 311 311 311
323 322 323 324 324 326 326 326 323 321 323 315 313 311 308 306 306 310 321 319 316 314 312 310 309 309 310 309 309 310 309 309 309
324 324 325 324 324 324 326 327 322 316 314 313 310 308 305 305 305 308 314 312 311 310 308 307 306 307 307 308 308 308 307 308 308
327 327 327 326 324 324 326 327 322 314 311 310 309 306 304 304 304 305 307 307 306 306 306 305 304 304 305 306 306 306 305 305 305
328 328 329 327 324 324 325 327 322 313 311 310 307 304 303 302 303 305 305 303 301 301 301 300 299 300 301 303 303 303 303 304 304
327 328 330 329 326 325 325 325 319 313 310 307 304 302 301 301 302 303 303 301 300 299 298 296 295 295 298 299 300 301 301 302 302
327 328 328 328 328 325 325 324 315 313 310 303 301 300 300 300 301 303 302 300 299 297 297 295 294 294 294 295 297 299 299 300 300
324 327 328 328 328 326 326 317 313 309 305 301 300 300 300 300 301 302 301 299 298 297 296 295 294 294 294 293 292 297 297 298 299
325 326 327 327 326 325 323 318 311 307 302 300 298 298 299 299 299 299 299 298 298 297 295 294 294 293 293 292 291 291 295 297 298
329 328 328 327 325 325 322 317 314 305 300 300 302 298 300 296 297 298 298 297 297 296 294 293 293 292 291 291 290 292 294 295 297
332 329 328 327 325 324 321 315 312 311 303 299 298 299 298 295 293 294 296 297 296 294 293 292 292 291 290 289 289 289 292 293 295
333 332 327 326 324 322 320 315 312 311 310 301 296 295 294 294 292 292 292 293 293 293 292 292 290 290 289 288 288 289 290 292 293

GFSFLT1_925_thetae_069.txt.gz
Theta_e
333 335 333 333 331 333 336 332 326 322 329 332 328 327 326 328 328 332 333 332 333 334 335 335 335 334 333 335 333 331 333 332 333
333 333 334 332 335 335 333 330 328 321 330 328 328 327 327 328 327 330 331 334 333 333 334 333 333 332 331 331 333 333 333 332 333
331 332 333 333 333 333 331 331 327 323 328 327 328 328 327 328 327 329 331 331 331 333 332 330 329 328 327 327 327 328 328 328 328
332 330 332 333 332 331 329 330 324 326 324 325 328 328 328 327 327 328 329 329 332 331 330 328 326 325 325 325 324 323 323 323 323
330 329 331 332 331 329 328 327 328 326 324 326 327 327 327 326 325 324 329 330 330 328 327 325 324 323 323 322 321 320 319 318 319
327 327 327 329 330 328 326 328 328 326 326 326 327 326 327 324 321 321 327 328 327 325 324 323 321 319 318 318 318 317 317 316 316
324 326 328 328 327 326 327 328 327 326 325 324 323 323 324 321 317 316 327 327 324 322 320 319 317 316 316 315 315 315 315 314 314
323 325 328 328 325 328 328 328 327 325 324 320 320 320 319 316 314 319 327 325 322 319 317 316 314 314 314 314 313 313 313 313 313
322 323 325 325 324 325 327 327 327 326 323 319 317 316 314 313 310 314 325 323 320 317 315 313 313 313 313 312 312 312 312 311 311
322 322 323 324 324 325 327 327 327 323 325 318 314 313 311 308 307 316 323 320 317 315 313 311 311 311 310 310 310 310 310 310 310
321 322 322 323 324 325 326 326 325 320 322 315 312 309 307 306 307 315 319 316 312 312 310 309 308 308 308 309 308 308 308 307 308
322 322 323 323 324 324 325 326 325 317 315 312 310 308 306 305 305 309 312 311 308 308 308 307 305 305 306 306 307 307 306 306 306
325 326 325 326 325 324 325 326 324 316 312 311 309 306 304 303 304 307 308 307 304 305 303 302 302 302 303 303 304 304 304 304 304
328 326 327 328 327 324 324 325 325 318 312 310 307 304 303 302 302 304 305 303 301 300 299 298 296 296 299 300 301 302 302 302 302
328 327 327 328 329 326 324 324 322 316 311 307 303 302 301 300 301 303 304 302 300 299 298 297 295 295 295 295 297 299 301 301 301
326 327 327 327 329 328 325 323 318 311 308 303 300 300 300 300 301 302 302 301 300 298 297 296 295 295 294 294 293 294 297 299 300
330 326 325 327 327 327 326 323 315 310 307 303 301 305 301 299 299 301 301 300 299 298 297 296 295 294 293 292 292 292 297 298 300
332 329 324 324 327 327 326 324 320 309 304 303 305 303 307 299 298 298 299 298 298 297 296 295 294 293 292 292 291 290 291 295 297
333 332 327 324 326 327 326 324 320 315 308 300 301 301 300 301 299 295 297 297 297 296 295 294 293 292 291 290 290 289 290 294 295
333 332 330 327 326 327 326 323 317 313 313 309 301 297 299 299 295 299 293 294 295 295 294 293 292 291 290 289 288 288 290 292 293

GFSFLT1_925_thetae_072.txt.gz
Theta_e
335 335 335 334 333 336 335 328 325 329 332 331 327 326 328 329 333 334 334 336 335 336 334 335 334 334 334 335 331 333 333 334 334
333 334 333 331 331 336 333 328 325 329 330 328 327 327 328 330 332 333 334 333 335 335 334 333 332 332 331 333 333 332 332 332 332
332 334 332 335 335 335 332 330 326 328 328 328 327 327 328 330 330 332 332 332 334 333 331 329 329 328 328 328 327 327 328 328 328
331 332 334 334 334 334 332 331 328 328 327 327 328 327 328 330 330 329 330 331 332 331 329 327 326 326 325 324 324 323 322 322 323
330 331 332 333 332 331 330 329 329 326 325 327 328 328 327 329 329 328 329 331 329 328 326 325 324 323 322 321 321 320 319 319 319
329 331 332 332 331 330 329 329 327 324 325 326 327 327 328 327 326 326 327 328 326 325 324 322 321 320 319 318 318 317 317 317 317
326 328 328 328 329 327 329 327 326 326 326 326 325 326 325 323 321 322 327 327 325 322 321 319 318 317 317 317 316 316 315 315 315
325 327 328 329 328 326 327 329 328 328 324 325 324 323 321 320 321 321 327 326 322 319 318 316 316 315 315 315 314 314 314 313 313
325 326 327 328 327 328 329 329 329 327 323 322 321 320 318 316 316 321 327 324 320 318 316 315 314 314 314 313 313 313 312 312 312
325 325 327 328 328 328 329 329 327 328 321 319 318 316 315 315 315 318 325 322 318 316 314 313 312 312 311 311 311 311 310 310 311
325 325 326 327 327 328 329 328 325 324 321 316 314 314 313 314 316 319 321 320 315 314 312 311 310 310 310 310 309 308 308 308 308
325 324 325 326 327 327 328 327 323 319 316 314 311 311 312 313 315 316 316 315 311 311 310 309 307 308 308 307 307 307 306 306 306
325 325 325 325 326 326 327 325 321 318 314 312 310 310 310 311 312 312 312 311 309 308 307 305 304 304 305 305 305 304 304 304 304
326 326 326 326 327 326 326 325 322 318 314 312 310 308 307 309 309 310 309 308 306 306 304 301 299 298 300 302 302 303 302 303 303
329 328 328 328 328 327 325 323 321 320 317 310 308 307 306 305 307 308 307 306 304 303 303 300 298 296 296 296 297 300 302 301 302
330 329 329 329 329 328 325 322 319 316 314 310 308 306 305 304 305 306 306 304 302 302 301 299 297 296 295 295 294 294 297 300 301
331 330 329 328 328 329 327 322 318 318 311 315 316 316 308 304 303 305 305 304 302 300 298 297 297 296 295 296 293 293 295 298 299
332 331 330 328 327 328 328 322 319 317 311 312 319 318 320 308 304 302 303 302 301 300 298 296 295 295 295 294 293 291 291 294 297
332 332 330 329 327 326 326 323 321 320 314 308 306 306 308 311 308 300 300 300 299 299 297 296 295 294 294 293 292 291 290 293 296
331 331 331 329 327 325 325 321 320 320 319 313 308 306 304 301 305 312 298 295 296 296 296 294 294 293 293 292 292 289 289 293 294

GFSFLT1_925_thetae_078.txt.gz
Theta_e
337 337 333 334 338 334 328 329 331 331 329 326 327 330 331 335 335 334 334 336 337 337 336 335 336 336 335 335 333 333 334 333 333
338 334 332 335 337 333 330 330 332 329 327 325 327 330 331 332 331 332 332 335 334 332 331 331 332 333 332 331 330 330 330 331 331
333 332 332 334 335 333 331 331 330 328 327 326 327 329 330 331 329 329 331 333 332 330 329 329 329 328 328 327 326 326 326 326 327
333 331 332 333 336 334 330 329 325 327 327 327 327 330 330 329 331 330 329 331 330 328 327 327 326 325 324 323 322 322 323 323 323
333 332 333 334 334 333 330 329 324 326 327 327 326 328 330 328 330 330 328 329 327 326 325 324 323 323 322 320 320 320 320 319 320
331 333 332 333 333 331 329 326 320 322 326 327 327 328 329 328 329 329 325 328 327 325 323 322 321 320 319 319 318 318 318 318 318
330 332 332 331 331 329 326 323 321 322 324 325 327 328 327 325 325 326 323 327 326 323 321 319 319 319 318 317 317 317 316 316 316
329 330 332 331 330 329 326 322 321 328 327 327 326 327 325 323 322 324 322 326 323 321 319 318 318 317 317 316 316 315 315 315 314
327 329 329 330 327 328 326 323 322 329 328 327 327 325 323 321 321 322 320 324 322 319 317 317 317 316 316 315 314 313 313 313 313
325 326 326 328 329 329 326 329 329 329 328 325 325 323 321 319 317 322 321 323 320 318 317 316 316 315 314 313 312 311 311 311 311
325 326 327 328 329 327 328 330 330 329 327 323 323 321 319 318 316 322 323 324 321 317 316 315 314 313 313 312 310 309 309 308 308
325 325 327 328 329 328 329 329 329 328 329 324 321 319 317 317 317 322 322 320 320 316 314 313 312 312 312 311 310 308 307 307 306
326 325 325 327 328 328 328 329 329 327 326 324 319 317 316 316 317 318 321 319 317 316 312 312 311 311 309 309 308 307 305 304 303
329 325 325 326 326 327 327 328 329 327 323 321 318 315 315 315 316 315 316 316 313 311 309 310 308 307 307 307 306 305 304 303 303
330 327 325 325 325 326 327 327 328 326 323 319 318 315 314 314 314 313 314 313 311 310 309 308 306 302 304 304 304 303 303 301 301
330 329 325 325 325 326 326 326 327 325 323 320 316 314 313 312 311 312 312 311 310 309 308 307 305 302 299 299 299 298 297 298 301
332 329 327 327 326 326 327 326 326 326 324 321 314 312 312 311 310 309 310 310 309 308 306 305 304 300 299 297 296 295 298 297 299
334 332 330 329 329 328 328 328 327 325 324 323 317 317 317 310 310 309 308 309 308 307 305 304 303 299 298 298 297 297 295 294 296
336 334 332 331 331 330 329 329 328 326 323 322 319 320 316 311 307 308 307 308 307 306 304 303 301 299 298 297 297 296 295 294 295
334 336 335 333 332 331 330 329 329 327 324 320 318 317 317 314 308 303 303 305 306 305 304 302 300 298 297 296 296 295 295 292 296

GFSFLT1_925_thetae_081.txt.gz
Theta_e
338 336 334 339 334 329 330 332 329 322 325 330 330 331 334 333 333 334 335 336 337 336 334 335 335 335 334 333 333 332 332 332 334
336 329 333 338 334 329 329 329 325 323 325 328 330 331 331 331 331 332 333 333 332 332 331 332 332 332 332 330 330 330 330 330 330
335 331 334 337 334 330 329 326 326 325 324 329 329 330 330 330 328 329 332 331 330 329 329 328 328 327 327 326 326 326 326 326 326
331 331 333 335 333 331 329 325 325 326 325 327 330 329 330 330 329 328 330 329 329 327 327 326 325 324 323 323 323 323 323 323 323
332 332 332 335 334 332 329 326 321 326 326 326 329 329 329 330 330 328 328 329 328 326 325 324 324 322 321 321 321 320 320 320 320
332 330 332 332 333 332 329 325 319 325 326 326 328 329 328 329 329 326 325 328 327 324 323 322 321 321 320 320 319 319 319 318 319
332 332 332 332 332 330 327 324 318 322 325 326 328 328 326 327 326 326 322 327 326 323 321 320 320 319 319 318 318 317 317 317 316
330 332 331 331 331 329 325 321 320 322 325 324 327 327 325 323 322 323 321 325 324 321 320 319 319 318 318 317 316 316 316 315 315
330 329 331 331 330 329 326 320 320 327 328 327 326 326 323 323 322 321 321 322 323 320 319 318 318 317 317 316 315 315 315 314 314
328 328 328 329 329 326 324 320 320 328 328 327 326 325 322 320 320 321 321 321 320 319 318 318 317 316 316 314 313 313 313 312 312
327 326 326 324 326 325 326 327 327 329 329 326 324 323 321 319 317 317 320 321 320 318 318 317 316 316 315 313 311 311 310 310 309
329 324 326 327 328 327 327 327 329 329 329 326 323 322 320 318 317 319 322 322 322 319 317 316 315 315 315 313 310 309 308 308 307
329 325 326 327 328 328 327 328 329 329 328 327 322 321 319 317 317 318 322 321 320 319 316 315 314 314 314 313 311 308 307 305 304
331 326 325 326 327 328 328 328 329 328 327 327 323 319 317 316 316 317 319 320 319 316 316 313 312 312 311 311 310 308 306 303 303
331 330 325 325 326 327 327 327 328 328 327 324 323 318 316 315 315 316 316 316 316 314 312 311 310 308 309 310 309 307 306 304 300
331 330 329 325 325 325 326 327 327 328 327 323 319 317 315 314 314 315 314 314 314 312 311 309 309 307 304 306 307 306 304 303 302
332 331 330 327 325 325 325 326 326 327 326 321 315 311 312 313 313 312 313 312 312 312 310 309 308 307 304 301 303 303 302 302 303
333 333 331 329 326 325 325 325 326 326 325 323 319 313 314 310 312 312 311 311 311 310 310 308 307 305 303 300 299 297 299 302 301
334 332 332 331 329 326 326 326 326 326 325 323 321 319 318 311 310 309 310 309 309 310 308 307 306 304 302 299 298 297 297 296 299
336 336 334 331 330 329 328 328 327 327 325 324 323 319 318 315 307 306 305 307 307 308 307 306 304 302 300 298 297 297 296 297 297

GFSFLT1_925_thetae_084.txt.gz
Theta_e
338 337 339 333 328 328 330 322 325 330 331 330 332 333 332 333 334 335 335 336 336 336 335 336 335 334 333 332 331 331 332 333 334
336 333 339 333 328 323 321 322 324 329 330 330 333 331 332 332 334 333 332 332 334 333 332 331 331 331 331 330 329 330 330 330 330
327 332 338 333 330 327 321 323 322 327 329 329 330 330 331 329 329 331 330 330 331 330 329 328 328 328 327 326 326 326 326 326 326
330 334 336 334 331 330 321 323 324 325 329 329 329 329 329 328 328 329 328 329 329 328 327 326 325 324 324 324 324 324 324 324 323
330 333 336 334 332 330 325 321 324 324 327 329 328 329 329 330 328 327 327 329 328 327 325 325 323 322 322 322 321 321 321 321 321
330 331 334 334 332 331 327 321 324 324 326 329 328 328 329 329 328 326 325 328 327 325 324 323 322 321 321 320 320 320 320 320 320
331 333 332 333 333 331 327 323 320 325 325 326 328 328 328 329 327 325 323 327 326 323 322 321 321 320 320 319 319 319 318 318 318
332 331 332 333 332 330 328 324 318 322 325 325 328 327 326 327 325 324 322 325 325 322 321 321 320 319 319 318 317 317 317 316 316
330 331 331 331 330 329 326 322 319 322 324 324 327 327 326 324 324 322 321 321 324 322 321 320 319 319 318 317 317 316 316 315 315
328 327 330 329 330 328 327 323 320 322 327 327 326 326 324 323 323 322 321 321 321 321 320 319 319 318 317 316 315 315 315 314 313
328 328 328 328 329 328 325 323 319 325 328 327 326 326 323 321 321 320 320 320 320 320 320 319 318 318 317 315 314 313 313 312 311
327 327 326 325 324 325 323 325 326 324 328 328 325 324 321 320 319 318 318 319 321 320 320 319 319 318 317 315 313 312 311 310 309
328 328 324 325 326 327 326 326 327 328 329 328 326 322 320 320 319 318 318 320 321 321 318 319 318 317 317 316 313 311 309 308 307
329 329 325 324 326 327 328 326 327 327 328 328 327 323 320 320 319 317 318 320 321 320 319 316 316 316 316 316 314 311 309 307 306
331 330 328 325 326 327 328 326 327 328 328 327 327 325 320 318 317 316 316 318 320 320 318 316 314 312 314 314 314 312 310 307 306
332 331 330 326 325 325 327 327 327 327 327 325 322 321 319 316 315 315 315 316 317 319 317 314 312 311 310 310 312 311 310 307 306
332 331 331 330 327 324 325 326 326 326 327 323 315 314 317 318 316 314 314 314 315 316 316 314 311 310 309 307 308 309 308 306 304
332 332 332 331 330 328 325 324 325 326 326 326 323 312 314 311 314 314 313 312 313 313 314 313 311 310 309 307 304 305 304 303 305
333 332 332 331 331 329 328 325 324 325 325 323 324 321 318 313 313 311 312 311 310 310 311 311 310 309 308 305 303 301 300 300 300
338 336 333 331 330 329 328 327 325 324 324 324 324 320 316 314 311 314 309 309 309 308 308 309 309 308 305 306 303 299 300 298 298

GFSFLT1_925_thetae_087.txt.gz
Theta_e
339 340 333 328 325 329 329 331 333 331 331 333 332 332 333 334 336 335 336 336 338 338 337 336 334 333 332 331 331 332 333 333 334
336 340 333 328 319 320 326 329 330 330 331 332 332 333 334 334 334 334 333 333 333 333 331 331 330 330 330 329 329 329 329 329 329
335 338 334 330 324 320 321 327 330 329 330 331 330 331 330 329 329 331 330 331 331 329 329 328 328 328 328 327 327 327 327 326 326
335 338 335 331 329 319 322 323 328 329 329 329 329 329 328 328 328 328 327 329 329 328 328 326 326 325 325 325 324 324 324 324 324
333 336 335 332 331 325 322 324 324 328 329 329 329 329 329 328 327 327 327 327 328 327 326 325 324 323 323 322 322 322 322 322 322
332 335 335 333 331 329 321 323 324 326 328 328 328 329 329 329 327 326 325 328 327 326 325 324 322 322 322 321 321 321 321 321 320
332 333 335 333 331 330 326 320 324 325 326 327 328 327 328 328 327 325 324 327 326 324 323 322 322 321 321 320 320 320 319 319 319
331 333 333 334 333 331 328 325 320 324 325 326 327 327 327 328 326 324 323 325 326 323 322 322 321 320 320 319 319 318 318 318 318
331 331 331 331 332 330 328 325 318 321 324 325 326 327 326 326 325 324 323 322 324 323 322 321 320 320 319 318 318 317 317 316 316
330 330 330 331 330 329 328 325 319 319 322 323 324 326 326 325 324 323 323 321 321 321 322 321 320 319 318 317 317 317 316 315 314
326 327 329 328 328 328 327 326 322 319 322 326 326 326 325 323 323 323 322 321 320 319 322 321 320 319 318 317 316 315 314 313 313
327 328 328 327 327 328 328 326 324 320 323 327 327 325 326 325 321 321 320 320 319 320 321 322 321 320 319 317 315 314 313 311 311
331 328 328 327 325 325 325 324 324 324 322 326 328 327 323 322 320 320 319 319 318 320 321 321 321 320 319 319 316 313 312 310 309
332 330 328 327 324 325 326 326 325 326 327 328 328 328 323 321 319 319 319 318 318 319 321 320 318 318 318 318 318 315 312 310 307
333 331 329 327 324 325 326 327 327 326 326 327 328 328 326 322 319 318 318 318 318 319 320 320 318 316 316 317 317 316 313 310 307
333 332 329 328 325 325 325 326 327 326 326 326 325 325 324 323 321 318 317 316 317 318 319 319 318 316 314 313 315 314 314 312 309
332 331 330 329 328 326 325 326 327 326 325 325 318 316 321 322 322 319 316 315 315 316 317 319 318 316 313 312 311 312 312 311 308
331 331 331 331 330 329 327 324 325 325 325 325 324 314 316 312 317 317 316 314 313 313 313 315 317 316 313 311 310 309 309 307 306
331 331 331 331 331 330 329 327 325 324 324 323 324 324 319 316 317 314 314 315 315 314 312 312 312 314 312 311 309 307 306 306 304
335 333 333 331 330 330 329 328 327 325 324 323 324 322 319 316 315 322 318 313 311 310 309 309 309 309 310 309 307 305 305 304 304

GFSFLT1_925_thetae_090.txt.gz
Theta_e
341 335 328 325 329 331 333 333 333 331 333 334 332 333 335 335 334 336 335 335 335 336 334 332 332 332 331 331 331 333 333 333 333
340 335 327 320 328 331 333 332 331 332 333 331 332 333 334 335 334 333 333 333 332 331 330 330 329 329 329 329 328 329 329 329 329
339 335 329 321 328 330 332 331 330 331 331 330 332 333 332 331 331 330 328 330 330 329 328 328 327 327 327 327 327 327 326 326 326
337 336 331 327 323 325 328 330 329 329 329 329 330 329 328 327 327 326 326 329 329 328 327 326 326 325 325 324 324 324 324 324 323
337 336 333 331 325 324 324 327 329 328 329 328 329 328 328 328 327 326 325 328 328 326 326 324 324 323 322 323 322 322 322 322 322
335 337 334 332 330 322 324 324 326 328 328 328 329 328 328 328 327 325 324 327 327 326 324 323 322 322 322 322 321 321 321 321 321
333 335 335 333 330 328 322 325 325 326 328 328 328 328 328 328 327 325 325 327 326 324 323 322 322 321 321 320 320 320 320 319 319
332 335 334 333 331 330 327 323 324 325 326 327 327 327 327 328 327 324 324 327 326 324 322 322 321 321 320 319 319 318 318 318 318
330 330 331 333 332 331 328 326 319 323 325 325 326 327 326 327 326 324 323 324 325 324 323 321 320 320 319 318 318 318 317 317 316
330 331 331 331 331 331 329 326 322 317 321 324 324 325 326 326 325 324 323 322 323 323 323 322 320 320 319 318 317 317 316 315 315
329 329 329 330 330 330 328 327 324 319 319 322 324 325 325 325 324 324 323 322 322 321 322 323 321 320 319 318 317 316 315 314 313
327 327 326 327 328 328 328 327 326 325 320 320 325 326 326 325 325 323 322 322 321 320 320 323 322 321 320 319 317 314 313 312 311
325 326 327 327 327 328 327 327 327 323 322 319 325 326 327 325 323 323 321 321 320 319 319 320 322 322 321 320 318 315 313 311 310
329 329 329 328 328 326 326 325 326 324 324 324 325 327 328 328 324 321 320 320 319 319 318 320 320 319 321 320 320 318 314 311 309
335 332 332 330 327 326 325 325 326 325 325 326 326 326 327 327 326 323 319 319 319 319 318 319 320 319 318 319 319 318 317 312 309
337 335 332 331 328 327 324 325 326 326 326 325 325 326 327 327 327 325 322 319 318 318 318 319 319 319 318 316 317 317 317 315 311
335 336 334 332 329 327 325 324 325 325 326 325 321 319 322 324 325 324 322 320 317 315 315 317 318 319 318 316 314 314 314 315 312
332 333 334 332 330 328 328 326 324 325 325 325 324 315 319 315 319 320 321 321 320 318 317 316 314 315 318 317 314 312 312 313 311
330 332 333 331 330 329 329 327 326 324 324 323 323 324 322 319 320 319 319 317 316 314 313 312 312 312 315 316 313 312 310 309 309
330 330 330 330 329 330 330 329 327 325 323 323 323 322 320 318 318 322 322 318 318 317 316 315 312 311 310 311 312 310 308 308 308

GFSFLT1_925_thetae_093.txt.gz
Theta_e
338 331 330 329 331 333 334 334 333 333 334 334 333 334 333 333 335 336 335 335 336 335 334 332 332 330 331 331 331 332 332 332 332
335 326 320 327 332 334 334 333 333 333 331 332 334 334 334 334 333 333 332 331 331 331 331 329 328 329 328 328 328 328 328 328 327
335 328 320 328 331 333 333 332 332 331 332 332 333 333 333 332 330 328 330 330 330 329 328 328 327 327 326 326 326 326 326 325 325
336 330 323 328 330 331 332 330 331 330 329 330 330 328 327 327 325 326 329 329 329 327 326 326 325 325 325 324 324 324 324 323 323
337 332 329 323 324 328 330 329 329 328 328 329 329 328 328 326 325 325 328 329 327 327 325 324 324 323 323 323 323 323 323 322 322
337 334 331 326 323 324 326 328 328 328 328 328 329 328 328 327 326 325 325 327 327 325 324 323 323 322 322 322 322 322 321 321 321
336 335 333 332 326 324 325 325 327 327 328 328 328 328 328 327 326 324 324 327 326 324 323 323 322 322 321 321 320 320 320 320 320
334 335 334 332 330 327 323 324 324 326 327 327 327 327 327 327 326 324 324 326 326 324 322 322 321 321 320 320 319 319 319 319 318
331 333 334 332 331 329 327 324 322 324 325 326 326 327 326 327 326 325 323 324 326 324 323 322 321 321 319 319 319 318 317 317 317
330 331 332 333 332 331 329 326 324 320 323 324 324 325 326 326 325 325 324 323 323 324 323 323 321 320 319 318 318 317 316 316 315
329 330 331 331 330 330 329 327 325 323 319 321 322 323 324 325 325 324 324 323 322 322 324 324 322 321 320 318 317 316 315 314 313
328 328 329 328 329 329 328 328 326 325 322 319 321 324 326 325 325 325 323 322 322 321 321 324 323 322 321 320 317 315 314 312 311
329 328 326 326 327 327 327 327 327 326 323 322 319 324 326 326 326 324 323 322 322 321 320 320 324 323 322 321 319 316 314 311 309
328 325 326 326 327 328 327 327 326 325 323 322 321 321 324 327 327 327 324 322 321 320 320 319 320 321 322 322 321 320 316 313 311
333 329 328 328 328 328 327 326 325 325 324 325 326 326 326 326 327 327 326 323 320 319 319 319 319 320 319 321 321 321 320 314 312
334 334 332 330 331 328 327 325 325 325 326 325 325 325 325 326 326 327 326 325 323 320 318 318 318 319 319 318 319 320 320 317 312
336 335 335 334 332 330 327 326 324 324 325 326 322 327 324 324 324 325 325 325 324 321 319 317 316 318 319 319 318 317 318 318 316
337 336 335 335 334 331 329 327 325 324 324 324 326 323 327 320 322 322 322 322 322 320 318 316 315 316 317 318 318 316 315 316 316
334 335 333 332 334 332 330 327 325 324 324 323 324 325 322 321 323 321 320 319 318 317 317 316 314 313 313 313 316 317 314 313 315
330 330 330 331 332 331 329 329 327 326 324 324 323 322 322 320 319 323 324 321 320 318 317 316 314 313 312 311 311 313 313 313 314

GFSFLT1_925_thetae_096.txt.gz
Theta_e
332 333 331 331 332 333 334 334 335 336 335 335 332 333 336 336 334 333 333 334 335 333 332 332 331 331 330 331 332 332 331 330 329
325 327 330 331 333 334 334 334 333 333 335 335 333 334 335 334 332 330 330 331 331 331 329 329 328 328 328 328 328 328 327 327 327
325 320 329 334 334 334 334 334 331 334 334 334 334 333 332 332 329 329 328 330 329 328 328 327 327 326 326 326 326 325 325 325 324
329 319 329 333 334 333 332 331 330 331 332 332 329 327 328 328 327 328 328 329 328 327 326 326 325 325 325 324 324 324 324 323 323
331 325 327 331 333 331 330 330 329 328 330 329 327 327 329 329 328 328 327 328 327 326 325 325 324 324 324 324 323 323 323 323 323
334 335 325 327 329 330 329 329 328 328 328 328 327 330 330 329 329 328 326 328 327 325 324 324 323 323 323 323 322 322 322 321 321
337 335 330 326 326 328 328 328 328 330 331 330 329 330 330 330 329 328 326 328 326 324 323 323 322 322 322 321 321 321 321 320 320
337 336 334 333 327 330 329 327 329 330 330 330 329 329 330 330 329 326 324 328 326 323 321 320 322 321 321 320 320 320 320 319 319
337 336 336 334 333 331 329 329 329 328 329 329 329 328 329 330 329 327 323 324 326 323 322 320 321 321 320 320 319 319 318 318 318
333 335 336 335 333 333 331 330 326 326 326 327 327 327 328 328 328 328 325 323 324 325 324 323 322 321 320 319 319 318 317 317 316
333 333 334 335 334 333 332 331 329 326 323 324 326 326 326 327 326 327 327 323 323 323 325 325 323 322 321 319 318 317 316 315 314
333 332 333 333 333 332 332 331 329 328 326 323 323 325 326 327 327 326 327 327 323 322 324 325 325 323 322 321 318 317 315 313 312
332 332 331 331 331 331 330 329 329 328 327 326 323 323 326 327 326 326 326 326 326 325 321 322 325 325 323 323 321 317 315 313 309
331 330 330 330 330 330 330 329 328 328 327 325 325 323 324 326 326 326 326 326 325 326 325 321 320 323 324 324 323 321 317 315 314
332 331 329 329 330 331 330 329 329 327 327 325 325 327 328 328 327 327 326 325 325 325 325 324 322 320 320 323 323 323 322 316 314
333 333 331 330 330 330 330 329 328 327 327 327 328 327 327 327 327 326 326 325 324 324 324 324 323 322 320 319 320 322 322 321 316
334 333 333 332 331 331 330 329 328 327 327 327 328 329 329 327 326 326 325 324 323 322 322 322 322 322 321 321 319 319 321 321 320
335 334 334 333 332 332 331 329 328 328 327 326 327 330 332 328 325 323 323 322 321 320 319 319 319 319 319 319 318 318 317 318 319
336 336 335 334 332 332 331 329 329 328 328 326 325 327 326 329 329 323 320 320 319 317 316 316 316 314 313 313 314 315 318 317 317
331 333 333 333 333 331 331 329 328 327 327 328 327 326 326 324 324 327 327 320 319 319 316 317 315 314 312 311 312 312 315 315 316

GFSFLT1_925_thetae_099.txt.gz
Theta_e
334 334 334 331 332 333 335 335 336 334 329 333 335 335 334 333 332 332 332 333 332 331 331 331 330 330 330 330 330 330 330 329 328
333 333 331 333 333 333 335 336 335 335 335 333 334 335 333 331 329 330 330 330 330 329 329 329 328 328 328 328 327 327 327 326 326
329 331 332 333 334 335 335 334 334 335 333 334 333 332 330 329 329 329 329 329 328 328 327 327 327 326 326 326 326 326 325 325 325
321 330 333 335 333 333 334 334 334 333 333 332 328 328 328 328 328 328 328 328 327 326 326 325 325 325 325 325 325 324 324 324 323
320 329 332 333 332 332 331 329 331 331 328 326 326 329 329 329 329 328 328 328 326 326 325 325 324 324 324 324 324 323 323 323 323
329 330 330 332 331 330 330 328 328 328 328 327 329 331 330 329 329 328 327 328 326 324 323 324 324 323 323 323 322 322 322 322 322
335 331 326 329 330 330 329 328 328 331 331 329 330 331 331 330 329 326 326 328 325 322 320 323 323 323 322 322 322 322 321 321 320
335 334 330 330 326 331 329 328 330 331 331 331 331 331 331 330 329 324 324 328 325 322 321 322 322 322 322 321 321 321 320 320 319
336 335 334 332 329 331 332 329 330 330 330 330 329 329 330 330 330 328 323 325 325 323 321 321 321 321 321 321 320 319 319 319 318
337 336 335 334 333 332 330 329 328 328 328 328 328 328 329 330 329 330 327 323 324 324 324 322 322 321 321 320 319 319 318 317 317
334 336 336 335 334 333 332 331 329 326 325 326 326 327 327 328 328 328 328 325 323 324 326 325 324 323 322 320 319 318 317 316 315
334 333 335 335 334 333 332 331 330 328 326 324 324 325 326 327 328 327 328 328 325 322 325 327 326 324 323 322 320 318 316 312 311
333 333 333 333 333 333 332 331 330 329 328 327 324 323 325 327 327 327 327 328 328 327 322 323 326 326 324 323 322 319 317 315 312
332 331 331 331 331 331 331 330 329 329 328 327 325 324 323 326 326 327 327 327 327 327 327 325 321 323 326 325 324 323 319 318 315
332 331 330 330 331 332 331 330 330 328 328 326 325 326 327 326 328 328 328 327 327 327 327 326 324 320 320 324 324 325 324 319 318
334 334 331 330 331 332 332 331 329 329 329 328 328 328 328 328 328 328 328 327 326 326 326 326 325 325 323 320 321 324 324 324 319
334 335 335 332 331 332 332 331 330 329 328 328 329 331 330 329 328 328 328 327 326 325 325 325 324 324 323 322 320 320 323 323 323
336 335 335 335 333 333 333 332 330 330 329 328 329 332 332 330 328 327 327 325 325 324 323 322 322 322 322 322 321 320 319 319 322
337 336 335 335 334 333 334 332 331 330 331 329 328 328 329 331 332 326 324 322 321 321 319 318 317 317 316 315 317 316 317 318 318
331 333 333 334 335 334 334 333 331 331 330 330 329 327 327 328 328 330 325 321 321 318 317 314 314 315 315 312 312 313 313 315 316

GFSFLT1_925_thetae_102.txt.gz
Theta_e
335 334 331 331 332 334 335 332 326 325 335 334 334 333 332 332 331 330 329 330 330 330 330 330 330 329 329 329 329 328 327 327 327
334 331 332 330 335 339 339 335 331 332 334 334 332 330 329 329 328 325 327 329 329 329 328 328 328 328 327 327 327 326 326 326 325
333 332 331 332 335 335 335 335 335 332 333 332 330 329 329 328 326 321 325 328 328 327 327 327 327 327 327 326 325 325 325 325 324
332 333 333 334 334 333 334 335 333 333 333 328 328 328 328 329 328 324 324 326 327 326 326 326 326 326 325 325 325 325 324 324 324
331 333 334 333 332 332 334 334 332 330 325 326 329 329 329 328 326 319 324 326 326 325 326 325 325 325 325 324 324 324 323 323 323
328 332 333 331 331 329 329 330 328 326 325 328 330 330 329 329 328 321 324 326 325 325 325 324 324 324 323 323 323 323 322 322 322
331 328 332 331 329 329 327 327 327 327 325 329 331 330 330 329 328 323 324 325 323 320 321 323 323 323 323 322 322 322 321 321 321
333 325 328 329 328 327 328 328 331 332 331 330 331 331 330 329 328 322 324 325 323 321 320 320 322 322 322 322 322 321 320 320 320
333 327 325 323 326 330 327 326 330 331 331 330 329 329 330 330 329 328 322 323 323 322 321 321 320 322 321 321 320 320 320 319 318
334 333 333 331 330 331 331 330 330 329 329 329 329 328 329 330 329 329 328 323 323 323 322 321 322 322 321 320 319 319 318 318 317
336 335 334 333 332 331 330 329 328 327 327 327 327 327 328 328 328 328 328 327 323 323 324 324 324 323 322 321 319 318 317 316 315
335 336 335 335 334 333 332 331 330 328 325 324 324 325 326 326 327 327 327 328 327 323 324 327 325 325 324 322 320 318 314 312 310
334 333 335 335 334 334 332 332 330 329 328 326 323 323 325 326 327 327 327 327 328 327 324 323 326 326 325 324 322 321 320 318 315
334 333 332 333 333 333 332 331 330 329 328 328 326 324 323 324 326 327 327 327 327 327 327 326 323 323 325 326 325 324 321 319 317
332 332 331 332 332 331 330 330 329 329 328 328 326 325 324 323 325 326 327 327 327 327 327 327 326 323 321 325 326 326 325 322 320
331 331 330 330 330 331 331 330 329 329 328 328 326 326 326 328 328 328 328 328 327 327 327 327 326 325 324 323 321 325 326 325 322
333 334 333 330 330 331 332 332 330 329 329 328 328 326 328 328 328 328 327 328 327 326 326 326 326 325 324 323 322 320 320 323 324
334 334 334 333 331 331 331 331 331 330 328 328 328 326 326 328 328 328 328 327 326 326 325 324 323 323 323 323 322 321 320 319 323
336 335 335 335 334 333 332 333 332 330 330 329 328 328 328 326 326 327 326 326 324 324 323 322 321 321 321 321 321 320 319 318 319
331 333 335 335 334 334 333 333 333 331 330 331 329 328 328 327 326 325 324 323 321 319 319 318 317 316 316 316 315 315 314 313 316

GFSFLT1_925_thetae_105.txt.gz
Theta_e
333 332 332 330 329 332 331 324 335 335 334 333 333 333 331 330 326 324 329 330 331 330 330 329 329 329 328 328 327 327 327 327 326
332 331 330 333 333 331 330 331 335 334 330 329 329 329 329 325 318 325 328 329 329 329 329 328 328 328 327 327 327 326 326 326 325
332 330 333 337 337 335 333 332 333 333 330 328 328 328 327 317 317 323 327 328 329 328 328 327 328 327 327 326 326 326 325 325 325
330 331 334 335 335 335 336 331 332 331 329 328 328 329 328 324 316 320 325 327 327 327 327 327 326 326 326 326 325 325 325 325 324
332 333 333 332 333 335 333 331 332 327 327 327 328 328 327 326 316 318 323 327 327 326 326 326 326 325 325 325 324 324 324 324 323
332 333 333 331 333 334 332 331 326 324 329 329 329 329 328 328 320 319 322 326 326 325 325 325 325 324 324 324 323 323 323 323 322
332 332 331 329 328 329 329 326 324 324 330 330 330 329 329 329 322 322 322 325 325 324 325 324 324 324 323 323 322 322 321 321 321
330 332 330 329 328 327 326 326 327 325 329 331 330 329 329 329 327 322 322 324 324 322 321 323 323 323 323 322 322 322 321 320 320
329 326 328 327 327 327 327 330 331 331 331 330 329 330 330 329 329 328 322 322 323 322 321 320 321 322 322 321 321 320 320 319 319
332 323 321 322 325 324 325 329 330 330 330 329 329 329 329 329 329 329 328 323 322 322 321 322 322 322 321 319 318 319 319 318 317
333 330 331 325 329 330 330 329 329 328 328 327 328 328 328 329 329 328 328 327 323 323 324 324 323 323 322 321 318 317 314 312 311
334 334 333 333 331 331 330 329 328 326 326 325 326 326 326 326 327 327 327 327 326 324 324 326 325 324 324 322 320 317 315 315 312
336 335 335 334 332 332 332 331 330 329 327 324 323 323 324 325 326 327 327 327 327 327 324 324 325 325 326 324 323 321 320 318 316
333 333 335 334 334 333 332 331 331 329 328 328 326 324 323 324 326 327 327 326 327 327 327 326 323 324 325 326 326 325 322 320 318
334 333 333 334 333 333 332 331 331 329 329 328 327 326 325 324 322 324 326 326 327 327 327 327 326 324 323 324 327 327 326 323 321
333 332 332 332 332 332 331 330 329 329 328 327 327 326 324 324 325 323 325 327 327 327 327 326 326 326 325 323 322 326 326 326 324
331 331 331 330 330 330 330 330 330 329 329 328 327 325 327 327 327 327 327 328 327 327 326 326 326 326 325 325 324 322 321 324 325
331 331 332 330 330 330 331 332 331 329 329 328 327 323 325 326 328 328 328 327 327 327 326 325 325 325 324 324 323 322 321 321 322
335 333 334 334 331 330 330 331 331 331 329 328 328 328 328 325 326 326 327 327 326 325 324 324 323 322 321 321 322 322 321 321 320
335 336 334 334 334 331 332 332 332 331 330 329 329 328 327 327 326 324 324 322 321 322 322 321 320 319 318 317 316 317 316 316 317

GFSFLT1_925_thetae_108.txt.gz
Theta_e
336 336 334 333 334 335 330 336 336 335 335 335 332 331 330 328 321 326 329 330 330 330 330 330 329 329 328 328 327 327 327 327 326
333 332 327 331 331 330 336 334 331 331 332 333 330 329 322 317 322 327 329 330 330 329 329 329 328 328 328 327 327 326 326 326 326
333 332 330 324 331 334 336 333 329 328 329 328 327 322 314 316 321 325 328 329 329 329 329 328 328 327 327 327 326 326 326 325 325
333 335 336 333 326 336 333 332 329 328 328 328 328 324 315 315 320 324 327 328 328 328 328 327 327 327 326 326 326 326 325 325 325
333 336 335 334 334 330 332 332 329 327 327 327 327 327 321 316 317 322 326 328 328 328 327 326 326 326 325 325 325 325 324 324 324
333 333 333 334 335 331 331 331 327 327 328 328 328 328 325 319 318 320 324 327 327 326 326 325 325 325 325 324 324 324 323 323 323
332 331 331 334 333 331 331 325 326 328 329 330 329 328 328 323 321 321 322 326 326 325 325 325 325 324 324 323 323 322 322 322 322
331 332 330 333 332 330 325 323 325 329 330 330 329 329 328 327 323 322 321 323 324 321 322 324 324 324 324 323 323 322 321 321 321
331 329 329 327 326 325 325 324 324 328 330 330 330 329 329 329 328 325 322 321 321 322 322 322 322 323 323 322 322 321 320 320 319
328 328 326 327 326 325 328 330 331 331 330 329 328 329 329 329 328 328 326 323 322 321 322 323 324 323 322 320 319 318 319 319 318
326 322 324 325 324 325 328 329 329 330 329 328 328 328 328 329 328 328 327 326 324 322 323 324 324 325 323 321 318 317 316 316 316
329 323 321 320 325 326 328 329 329 328 327 327 327 327 327 327 328 327 327 326 326 324 324 326 326 325 325 323 320 317 315 315 313
333 329 332 330 329 330 329 329 328 327 326 325 325 326 325 326 326 326 326 326 326 326 325 325 326 326 326 325 323 321 320 318 316
335 334 334 333 332 331 331 329 329 329 327 326 325 323 323 324 325 326 326 326 326 326 326 325 325 325 326 327 326 325 324 321 319
334 335 335 334 333 332 331 331 330 330 329 328 327 326 325 323 323 324 325 326 326 326 326 327 326 325 324 325 327 328 326 325 323
333 333 334 334 334 333 332 331 331 330 329 328 327 327 327 325 324 323 322 325 325 326 326 326 326 326 325 324 323 325 327 326 325
334 334 333 332 333 332 332 331 330 329 328 327 326 323 325 326 324 324 325 324 326 327 327 327 326 326 326 325 325 324 323 323 325
332 332 332 331 331 332 331 331 330 329 329 328 326 322 323 324 327 327 326 327 327 327 327 326 326 326 325 325 324 324 323 322 322
331 331 331 331 329 329 330 330 331 331 329 328 328 327 327 324 326 326 326 327 327 327 327 326 325 325 324 323 323 322 322 322 321
334 331 332 333 333 329 330 330 331 331 330 329 328 327 327 326 325 324 323 323 324 324 324 323 322 321 320 321 319 319 318 318 317

GFSFLT1_925_thetae_111.txt.gz
Theta_e
341 337 336 335 335 334 336 336 336 336 336 334 333 332 328 320 323 327 329 330 331 330 330 329 329 329 328 328 328 327 327 327 327
337 332 331 331 332 336 336 334 334 334 332 330 328 322 318 319 324 328 329 330 330 330 329 328 328 328 328 327 327 327 327 327 326
334 329 333 332 333 336 334 331 332 333 329 327 321 314 316 319 324 327 328 329 329 329 328 328 328 327 327 327 327 326 326 326 326
326 327 329 329 336 335 329 329 329 328 327 325 316 313 314 317 321 325 328 329 329 328 328 328 327 327 327 326 326 326 326 325 325
332 325 325 332 335 333 329 328 328 327 327 326 325 316 315 316 319 324 328 329 329 328 327 327 327 326 326 325 325 325 325 325 324
336 336 328 333 335 332 330 327 327 327 327 327 327 321 317 316 318 321 325 328 328 327 326 326 326 325 325 325 324 324 324 324 323
335 334 333 331 332 331 330 327 327 327 328 328 328 326 321 320 320 321 324 327 327 326 324 325 325 325 324 324 323 323 323 323 322
332 332 335 333 331 331 329 325 327 328 329 328 328 328 325 322 321 321 322 325 325 323 322 322 324 324 324 323 323 322 322 321 321
330 332 334 332 330 330 324 326 328 329 329 329 328 328 327 327 325 323 322 322 323 323 323 321 324 324 323 323 322 321 321 320 320
331 330 332 332 330 326 323 323 327 328 329 329 329 329 328 328 327 327 325 323 322 322 324 324 324 324 323 322 321 321 320 319 318
329 329 327 326 325 325 324 326 327 330 329 329 328 328 328 328 328 327 327 325 323 323 325 325 326 325 324 323 321 319 318 317 316
327 327 327 326 325 326 329 329 329 329 329 328 327 328 328 328 328 327 327 326 325 324 324 326 327 326 325 324 322 319 317 316 314
324 322 324 324 324 324 325 326 328 328 327 326 326 326 326 326 326 326 327 326 326 326 325 325 326 327 326 325 324 321 320 318 316
329 326 320 320 323 328 328 329 329 328 326 325 324 323 324 325 325 325 325 326 326 326 326 325 325 326 326 327 327 325 324 323 321
332 330 330 331 329 330 330 330 329 328 328 328 326 326 326 323 322 323 325 326 326 326 326 326 326 326 325 325 327 328 327 325 324
334 334 333 333 333 332 331 331 329 329 329 328 327 327 327 326 326 323 322 323 324 325 326 326 326 326 326 325 325 324 327 327 324
334 334 334 334 334 333 332 331 330 330 329 327 325 323 323 326 326 325 324 323 322 324 325 326 326 326 326 326 325 324 324 324 326
333 333 333 334 333 333 332 331 331 330 329 327 327 321 322 322 326 326 324 324 325 325 326 327 326 326 325 326 325 325 324 324 323
333 333 333 332 332 332 331 331 331 330 329 327 327 326 327 324 325 325 326 326 326 326 326 326 326 326 325 325 325 324 323 322 322
332 332 331 331 330 330 330 330 330 329 329 329 328 327 326 326 325 324 324 324 326 326 326 326 326 325 324 324 323 322 319 318 318

GFSFLT1_925_thetae_117.txt.gz
Theta_e
342 341 337 336 335 337 338 338 337 334 333 332 326 321 323 324 329 330 331 331 331 331 330 330 329 330 329 329 329 328 328 328 329
341 339 336 334 334 336 337 337 336 333 331 328 318 320 321 326 329 330 331 331 331 330 330 329 329 330 329 329 328 328 328 327 327
340 337 334 334 334 336 338 337 333 329 325 317 318 320 322 326 329 330 330 330 330 330 329 329 329 329 328 328 328 328 327 327 327
339 335 332 334 333 336 336 332 329 326 317 316 318 320 320 323 327 329 329 330 330 329 329 329 328 328 328 327 327 327 326 327 326
335 332 333 334 333 334 334 330 326 316 314 315 317 318 319 321 324 329 329 330 329 329 328 328 327 327 327 326 326 326 326 325 325
331 333 335 333 332 333 331 327 323 320 315 315 316 316 318 321 326 328 329 329 329 328 328 327 327 326 326 325 325 325 324 324 324
331 332 335 333 331 330 328 326 325 325 320 317 317 317 319 321 325 328 328 329 328 327 327 326 326 325 325 324 324 324 323 323 323
332 334 335 331 328 329 328 326 326 326 326 323 320 320 320 321 323 327 328 329 328 326 326 325 323 325 324 324 323 323 322 321 321
332 336 336 331 328 327 326 326 327 327 327 327 326 323 323 322 322 324 325 327 328 326 325 324 324 324 324 323 321 319 318 318 318
331 336 335 332 330 327 326 326 327 328 328 327 327 327 326 326 324 323 323 324 325 325 325 324 324 324 324 321 319 320 319 317 314
326 331 335 333 331 328 326 326 328 328 328 328 328 328 327 327 326 325 325 324 323 324 326 326 326 325 325 323 319 318 317 315 313
332 330 331 332 331 329 324 326 327 328 328 328 328 327 327 327 327 326 326 325 324 324 328 328 327 327 326 325 322 318 317 317 316
332 334 332 330 330 328 323 325 326 328 328 328 327 327 327 327 327 327 326 326 325 325 325 328 327 327 327 326 324 322 322 322 320
330 332 332 330 329 326 323 324 326 328 328 327 327 325 325 326 325 325 325 326 325 325 325 325 326 327 326 327 327 326 324 323 323
328 329 330 328 326 324 324 326 327 327 327 327 325 325 324 323 323 323 323 324 324 325 325 325 325 325 326 326 328 329 327 327 325
327 327 326 325 325 324 325 326 325 327 327 326 327 328 328 328 327 326 325 322 322 323 325 325 325 325 325 326 326 326 325 325 326
326 325 325 325 325 324 323 325 328 328 328 328 326 330 326 324 326 326 325 324 323 322 323 323 324 325 325 325 326 325 325 325 325
327 327 325 322 321 320 322 327 329 329 329 328 329 328 328 323 323 325 324 324 324 324 323 322 323 324 325 325 326 325 325 325 324
331 331 330 328 325 327 328 330 330 330 330 328 327 328 324 329 329 325 325 324 324 324 323 322 323 325 326 325 325 325 325 325 324
334 333 332 332 332 331 331 331 331 330 329 329 328 327 326 325 325 330 325 324 324 323 323 324 325 325 325 325 325 325 324 324 323

GFSFLT1_925_thetae_120.txt.gz
Theta_e
342 338 338 338 337 338 339 338 336 335 333 329 325 327 326 329 329 331 330 331 332 331 331 331 331 331 330 330 329 329 329 328 329
342 337 338 337 337 338 339 337 335 333 330 321 321 323 327 328 330 330 331 331 331 331 331 331 330 330 330 330 329 328 328 329 329
340 336 336 335 337 338 338 337 334 330 321 318 320 323 328 329 330 330 331 331 331 331 331 330 330 330 329 329 328 328 328 327 326
339 336 334 333 336 337 338 335 329 323 317 319 321 324 328 328 329 329 329 331 331 330 330 329 329 329 328 328 328 328 327 327 327
337 334 334 334 337 337 334 330 325 316 317 318 320 322 327 328 329 328 329 331 330 330 329 329 328 328 328 327 327 327 326 326 326
337 336 334 333 335 335 331 327 315 315 316 317 319 324 326 327 328 328 329 330 329 329 329 328 328 327 327 326 326 326 325 325 325
335 337 334 333 335 334 328 320 317 321 322 320 321 325 326 327 328 328 329 329 329 328 328 327 327 326 326 326 325 325 324 324 324
335 337 335 336 335 333 329 324 328 325 323 323 324 325 326 327 328 327 329 329 328 328 327 326 326 325 325 324 324 323 322 322 322
332 336 334 334 333 332 330 328 329 328 327 325 324 325 326 326 327 326 327 329 328 328 327 326 325 325 325 323 321 319 317 315 315
331 336 334 332 332 330 329 328 329 329 329 328 327 327 327 327 328 328 323 325 326 328 326 326 326 325 324 320 317 315 314 313 313
332 334 335 332 330 329 328 329 330 330 329 329 329 329 328 328 328 328 327 323 324 325 327 328 327 326 325 322 319 317 316 316 315
332 333 335 332 330 329 328 329 330 330 330 330 329 329 329 329 329 328 328 327 324 324 327 328 328 327 326 325 322 318 318 318 317
330 336 335 332 331 329 328 328 329 330 329 329 329 329 329 329 329 328 328 328 328 326 325 327 327 328 328 327 326 322 322 322 322
329 331 333 332 331 329 327 327 329 329 329 329 328 327 328 328 328 328 328 328 328 328 328 325 326 327 327 328 328 327 325 324 324
331 331 332 331 331 329 327 327 327 328 329 327 326 326 326 325 326 326 327 327 328 328 328 327 326 325 326 326 328 330 329 328 327
333 333 333 331 330 329 327 327 328 329 328 328 329 329 329 328 328 326 326 326 326 327 327 328 328 328 326 325 326 327 328 327 326
331 331 331 330 329 328 327 328 328 328 328 331 331 332 331 329 328 328 327 326 325 325 326 326 327 327 327 328 326 326 326 326 327
329 329 329 328 328 327 327 327 328 329 329 330 331 333 331 327 327 328 327 326 325 324 324 325 325 325 326 327 326 325 326 325 325
329 329 327 327 327 326 326 325 328 331 333 330 329 330 329 332 332 329 327 325 325 324 323 323 324 324 324 324 326 326 325 325 325
330 330 330 329 326 325 325 323 329 331 331 332 331 330 330 330 330 331 329 326 323 324 323 323 323 323 324 324 324 325 324 324 324

GFSFLT1_925_thetae_123.txt.gz
Theta_e
340 338 338 340 339 340 339 339 340 338 333 331 331 327 329 330 331 331 331 331 332 332 332 332 331 331 331 329 329 329 330 329 328
340 338 338 339 338 339 338 343 336 331 325 323 324 327 329 330 331 331 331 332 332 332 331 332 331 331 330 329 329 329 329 328 328
339 337 337 336 338 339 339 342 334 329 319 320 324 328 330 331 331 332 332 331 332 331 331 331 330 330 329 329 329 328 328 328 328
338 337 337 337 338 339 337 339 330 319 317 319 326 329 329 330 330 330 331 331 331 331 330 330 330 330 329 329 328 328 328 327 326
337 337 336 337 338 338 337 330 323 316 317 320 325 327 329 330 330 330 331 330 331 330 330 329 329 329 328 328 327 327 327 326 326
337 338 334 336 338 338 331 326 315 316 318 318 325 327 328 329 328 329 329 330 330 329 329 329 328 327 327 327 326 326 325 326 325
338 337 335 337 337 333 328 318 314 320 320 320 325 327 327 329 329 329 329 330 329 328 328 327 327 326 326 326 325 325 324 324 324
337 336 336 337 335 333 326 315 323 322 322 323 326 326 327 328 328 328 329 329 329 328 327 327 326 326 325 325 324 322 322 322 322
336 335 335 337 334 332 325 326 326 325 324 325 326 326 327 328 328 327 328 329 329 328 327 325 325 324 324 322 320 318 316 317 318
334 333 335 335 332 330 327 329 329 328 326 325 326 327 327 327 328 327 323 325 327 328 328 327 326 325 324 321 318 316 315 315 314
334 333 333 332 331 330 329 329 330 329 329 329 328 328 328 328 328 329 322 322 323 325 327 328 327 327 325 322 319 317 317 316 315
336 336 332 332 331 329 329 330 330 330 330 330 330 329 329 329 329 329 330 324 323 323 326 328 328 328 327 326 321 318 318 318 318
335 335 333 331 330 329 328 330 330 330 330 330 330 330 330 329 329 329 329 329 329 325 324 327 328 328 328 328 327 321 322 322 322
333 334 333 331 330 329 329 329 330 330 330 330 329 329 329 329 329 329 329 329 329 329 329 325 326 327 328 329 329 328 326 324 324
333 334 334 332 331 329 328 328 329 330 329 329 328 328 328 328 328 328 328 328 328 329 329 329 326 325 326 327 329 330 330 329 328
330 333 333 332 331 330 328 328 328 328 329 328 328 328 328 328 328 327 327 327 327 328 328 328 329 328 328 326 326 328 329 329 328
329 331 332 331 331 330 329 327 328 329 329 329 332 334 332 331 330 330 329 328 327 326 326 327 327 328 328 328 327 326 326 326 328
331 331 331 331 330 330 328 328 329 329 329 330 332 334 334 329 327 328 328 328 327 327 326 325 326 327 327 327 328 327 326 325 325
331 331 332 331 330 329 328 328 328 330 332 331 331 331 332 331 333 330 329 328 327 326 325 324 325 325 325 326 326 326 326 325 325
330 330 330 330 329 328 327 327 328 330 333 333 332 332 330 330 331 332 330 329 326 326 326 325 324 324 324 324 324 324 325 324 324

GFSFLT1_925_thetae_126.txt.gz
Theta_e
339 336 340 340 341 340 339 338 339 339 336 335 327 329 331 330 330 330 331 332 333 333 331 331 331 330 329 330 331 329 329 329 328
338 339 339 339 340 339 339 338 336 330 328 327 329 329 330 330 331 331 331 333 332 332 331 331 331 330 330 330 329 328 329 328 327
339 339 339 339 339 338 338 338 329 321 320 323 329 330 331 331 331 331 330 332 331 331 330 330 330 329 329 327 328 328 327 327 327
338 338 339 338 338 338 338 336 327 316 318 327 329 330 330 331 330 330 330 331 331 331 330 329 329 329 328 327 328 327 326 326 327
337 337 337 338 338 337 337 330 317 315 318 328 329 329 329 330 331 330 330 331 331 330 330 329 329 329 329 328 327 327 327 326 326
337 336 337 338 338 336 332 323 314 316 320 327 328 329 329 329 329 329 330 331 330 329 329 328 328 328 327 327 326 326 326 326 325
337 336 337 338 338 335 327 316 315 316 322 326 327 328 329 328 328 328 329 330 330 329 328 328 327 327 326 326 326 325 325 324 324
338 336 337 338 337 331 322 314 316 316 322 326 327 328 329 328 326 327 328 330 329 328 328 327 327 326 325 325 324 322 320 320 321
337 335 337 337 334 328 315 317 322 322 321 325 326 327 328 328 326 325 326 329 329 328 327 325 324 324 323 321 318 315 315 315 316
336 335 337 335 333 325 314 326 324 323 325 325 326 326 327 328 327 321 324 325 327 328 327 325 326 324 322 319 316 315 315 315 314
335 335 336 334 332 325 327 329 327 326 325 325 326 327 327 328 328 327 321 322 322 325 328 328 327 327 325 321 318 317 317 316 316
334 334 335 333 331 327 328 329 329 328 328 328 328 328 328 328 328 329 327 323 322 323 326 329 329 328 328 327 322 319 318 318 318
333 333 334 332 331 329 329 329 330 329 329 329 329 329 329 329 328 329 329 329 328 325 323 326 328 328 329 328 327 322 321 322 322
333 334 332 332 330 329 329 330 330 330 330 330 329 329 329 329 329 329 328 328 329 329 329 327 325 326 327 329 329 329 326 324 324
333 334 332 331 329 328 329 330 330 330 330 329 329 329 329 329 329 328 328 328 328 328 328 329 328 327 325 326 328 330 331 329 328
333 333 333 330 329 329 328 329 330 330 329 328 327 327 327 327 327 327 327 327 327 328 328 328 328 329 328 328 326 325 326 329 329
331 332 333 331 330 329 328 328 328 329 329 328 330 329 330 330 330 330 329 328 327 327 326 326 327 327 328 328 328 328 326 326 327
331 332 332 331 330 329 328 327 328 329 329 329 331 328 329 328 329 328 329 328 327 327 326 326 326 326 326 327 327 327 327 326 326
332 333 332 331 330 330 328 327 328 329 329 328 331 331 331 328 329 328 329 328 328 328 327 325 325 324 325 326 326 327 327 326 325
330 331 330 330 330 330 328 327 328 329 330 331 330 331 330 330 328 328 329 329 328 327 326 326 324 324 324 324 324 324 324 324 323

GFSFLT1_925_thetae_129.txt.gz
Theta_e
335 340 342 342 339 338 338 338 337 336 331 329 331 330 331 330 331 333 332 331 331 331 332 330 329 331 331 329 330 330 328 327 328
336 340 341 341 339 338 338 337 338 335 327 329 330 331 330 330 329 331 331 332 332 332 331 331 330 330 330 329 330 329 328 328 328
336 340 339 340 339 337 338 337 332 330 327 329 329 330 331 329 329 332 330 331 332 331 331 329 330 328 329 329 328 327 327 327 327
338 339 339 339 338 338 336 328 321 321 328 329 331 331 331 330 330 331 330 330 331 330 330 329 328 328 329 328 328 327 327 326 327
338 339 339 339 337 337 335 324 316 321 329 329 331 329 329 328 329 330 330 331 331 330 330 329 329 329 328 328 327 327 327 326 326
338 338 338 338 337 337 332 319 315 324 329 329 329 329 330 330 328 330 330 331 331 330 329 329 328 328 327 327 326 326 326 326 326
338 338 337 338 337 333 327 314 316 327 328 328 329 329 329 328 326 328 330 330 330 329 328 328 328 327 327 326 326 325 325 325 325
337 337 338 338 336 332 321 314 317 326 327 327 328 328 328 327 323 327 329 330 329 328 328 327 327 326 326 324 323 322 323 323 322
338 338 338 337 336 329 316 314 316 325 326 326 327 328 328 327 320 324 328 329 329 328 328 326 325 325 323 321 318 317 317 317 317
338 339 339 337 335 326 314 316 315 324 325 325 327 328 327 327 320 321 324 326 328 328 327 326 325 324 322 319 317 316 316 316 315
337 338 336 336 334 323 316 322 322 323 325 325 326 327 328 327 325 320 321 322 323 326 328 328 326 325 323 320 318 317 317 317 316
336 335 336 335 331 318 324 326 324 324 324 326 326 327 327 328 328 327 320 321 321 322 325 327 326 326 327 326 323 319 319 319 318
335 334 335 333 330 317 328 327 326 326 325 326 327 328 327 328 328 328 328 328 326 323 323 324 325 326 328 328 329 325 321 321 322
334 333 333 333 330 323 328 328 328 328 328 328 328 328 328 328 328 328 328 328 328 328 328 328 325 325 325 328 329 329 327 325 324
332 332 332 333 330 327 329 329 329 329 329 329 329 329 329 329 329 328 328 328 328 328 328 328 328 328 327 325 327 330 330 330 330
333 333 332 332 329 328 329 329 330 330 329 328 328 328 328 328 328 328 327 328 328 328 327 327 327 328 328 328 327 327 327 327 328
334 332 332 331 329 328 329 330 330 329 328 327 327 325 327 327 327 327 327 327 326 327 327 327 327 327 328 328 328 328 328 327 328
333 332 331 330 328 328 329 329 329 329 328 328 329 325 327 327 329 329 329 329 328 327 327 326 326 325 325 326 327 327 327 327 326
333 332 331 330 329 328 328 329 329 329 328 330 331 330 329 325 327 327 328 328 328 327 328 327 325 325 324 324 325 326 326 326 325
333 332 332 331 329 328 327 327 328 328 328 330 330 330 329 328 326 326 327 327 328 327 326 325 324 324 324 323 324 324 324 323 323

GFSFLT1_925_thetae_135.txt.gz
Theta_e
340 341 337 335 341 338 339 338 336 335 334 336 331 329 332 331 331 330 330 332 332 331 332 330 331 330 328 330 329 329 328 328 327
342 342 339 337 339 338 337 336 334 333 332 334 329 327 330 330 330 330 331 331 330 332 331 329 330 330 328 328 329 328 327 327 327
341 341 340 337 338 337 335 332 330 331 331 330 329 328 329 329 330 330 331 331 331 331 330 330 329 328 329 328 327 328 327 327 325
341 341 340 337 337 336 336 330 330 329 329 329 328 327 327 328 331 331 331 331 331 331 330 330 329 328 328 327 327 327 326 326 326
341 341 339 336 337 336 336 330 329 328 329 329 329 326 329 329 330 330 330 331 330 330 330 329 329 328 328 327 326 326 326 326 325
340 340 339 337 336 336 334 330 327 328 329 329 330 327 328 329 328 330 330 331 331 330 329 329 328 328 328 327 327 326 326 326 326
337 339 339 337 336 332 329 327 327 328 330 330 329 328 326 328 329 329 330 331 330 330 329 329 328 327 327 326 326 326 326 326 324
338 339 339 337 335 331 324 323 328 328 330 329 328 327 326 326 328 328 329 330 330 329 328 327 326 325 326 326 324 323 322 321 320
340 339 339 337 335 332 320 320 328 328 329 328 329 328 327 326 326 328 328 329 330 329 327 326 326 325 325 323 319 316 316 317 317
339 339 338 337 336 331 318 320 327 327 327 327 328 328 327 324 324 325 327 327 328 329 327 326 326 326 324 321 318 317 317 317 316
338 338 337 337 336 330 315 318 327 327 326 327 328 327 327 324 321 323 324 324 324 327 328 328 328 328 325 323 319 318 318 318 317
338 338 336 336 336 331 316 316 327 327 325 325 327 327 326 325 319 320 321 322 323 323 327 329 329 328 328 328 326 322 320 319 319
338 337 336 335 336 332 317 316 325 325 324 324 327 327 326 326 322 320 320 320 320 321 322 325 327 327 329 330 329 328 327 322 321
338 336 335 334 336 332 316 316 324 324 322 323 325 327 326 326 326 326 322 323 324 323 323 324 325 325 326 329 330 329 328 328 328
337 336 335 334 335 331 316 315 321 321 322 323 325 326 326 326 327 327 327 327 327 327 327 327 327 327 327 327 328 330 330 329 328
337 335 334 333 334 332 316 315 317 321 322 324 324 325 325 326 327 327 327 327 327 327 327 327 327 327 327 327 327 327 327 328 328
333 335 334 333 333 330 317 319 322 323 323 325 325 322 325 326 327 327 327 327 327 327 327 327 327 327 327 326 326 326 327 327 327
326 334 334 333 331 329 319 321 324 324 324 326 326 321 324 324 326 326 327 327 326 325 325 326 326 326 325 325 325 325 325 326 327
325 329 334 332 330 328 320 322 325 326 324 326 328 327 326 323 324 326 325 325 326 326 326 325 325 325 324 323 324 325 325 326 326
325 331 333 332 329 327 321 323 326 327 326 326 327 328 327 325 323 322 325 326 327 326 325 326 325 323 323 323 323 323 323 323 323

GFSFLT1_925_thetae_138.txt.gz
Theta_e
339 341 340 336 339 340 340 338 334 332 334 334 333 329 330 331 330 330 331 330 332 331 331 331 329 329 328 328 328 328 327 326 327
337 337 336 338 337 339 338 337 335 335 333 331 328 330 329 330 329 330 330 331 334 331 330 330 329 328 328 328 328 328 327 326 326
341 339 334 340 337 338 338 335 334 333 332 328 327 329 329 329 329 330 330 330 331 330 330 329 328 328 328 327 328 327 327 326 326
341 341 333 339 338 337 335 332 331 331 329 328 326 328 328 328 329 330 330 330 330 330 329 329 328 327 327 327 327 326 327 325 326
341 341 337 338 337 336 333 330 330 329 327 327 327 327 327 329 330 330 329 330 330 329 329 328 328 328 327 326 327 327 327 326 326
341 341 338 336 336 336 333 329 329 328 328 328 327 326 327 330 329 329 330 330 330 329 329 329 329 328 327 327 327 327 327 327 326
339 340 338 336 336 336 335 329 328 328 328 329 328 326 328 327 329 329 329 330 330 330 330 329 328 328 327 327 326 326 326 325 322
338 340 339 337 336 334 335 330 327 327 328 329 329 327 326 327 327 329 329 330 330 330 329 328 327 326 325 325 324 323 321 319 319
339 339 339 337 336 332 333 330 326 328 329 329 327 325 325 325 327 328 329 330 330 330 329 328 327 325 325 323 320 318 317 317 317
338 339 338 338 336 331 326 324 326 328 329 329 327 327 327 325 325 326 327 328 329 330 329 328 327 326 325 323 318 317 317 317 316
338 338 338 338 336 333 326 320 326 328 329 328 328 328 327 325 324 324 325 326 326 328 329 329 328 328 327 326 321 320 319 318 318
339 338 337 337 337 335 328 319 326 327 327 327 328 328 327 325 322 322 323 324 324 324 329 330 330 329 330 329 328 326 321 320 320
339 338 337 336 336 336 330 318 326 327 326 326 327 327 327 326 322 320 321 322 322 322 322 328 329 329 330 329 328 328 327 327 325
338 338 337 336 335 336 330 317 324 326 325 324 325 327 327 326 325 321 320 320 320 321 321 322 325 326 327 329 330 329 329 329 328
338 338 337 335 334 335 331 317 320 326 325 322 323 326 326 326 325 325 325 322 324 325 325 325 325 326 326 327 327 329 329 329 328
334 337 336 335 333 334 333 319 318 323 323 321 322 324 326 326 326 326 326 326 326 326 326 327 327 327 326 326 326 327 327 327 327
335 336 335 334 333 331 331 320 317 321 321 322 323 321 323 325 325 326 326 327 327 327 327 327 327 327 327 327 326 326 326 326 326
332 336 335 334 334 330 330 323 317 321 320 323 324 320 323 322 326 326 326 327 327 327 326 325 325 326 326 325 325 324 324 325 326
331 331 334 334 333 331 328 325 316 320 321 323 325 326 326 322 322 325 326 326 326 326 325 325 325 325 325 325 324 324 324 325 325
326 327 327 333 332 330 328 322 319 319 321 322 324 325 325 324 321 321 323 324 324 325 325 325 325 326 324 323 323 323 323 323 323

GFSFLT1_925_thetae_141.txt.gz
Theta_e
336 336 339 336 340 340 340 339 339 336 334 334 332 330 330 330 332 330 330 332 331 334 334 329 331 331 330 328 328 328 328 328 327
339 342 337 335 339 340 339 336 333 330 330 332 328 330 330 330 331 329 330 334 332 330 331 329 329 328 329 328 328 327 327 326 327
340 340 336 337 338 339 338 334 334 331 329 327 327 328 329 329 330 330 330 332 330 331 329 328 328 328 327 328 327 327 327 327 326
339 334 335 338 337 339 337 336 336 333 328 325 327 327 328 329 330 330 329 330 330 330 329 329 328 328 328 327 326 326 326 327 327
341 337 336 340 337 338 335 333 332 332 328 326 326 327 328 329 330 329 330 329 330 330 329 329 328 328 327 327 327 327 327 327 326
341 341 335 339 338 337 334 331 331 329 326 326 326 327 328 330 330 330 328 330 330 329 330 329 329 328 328 327 327 327 327 326 326
339 340 338 337 337 337 333 330 329 328 329 327 326 326 328 330 329 330 329 330 331 330 330 329 328 328 327 326 326 326 326 323 321
335 340 339 337 337 336 335 331 329 327 327 328 326 326 327 329 329 329 329 330 331 330 329 328 328 327 325 324 324 321 320 318 319
336 339 340 338 337 336 335 332 329 327 327 328 328 326 326 327 327 329 329 330 331 330 329 328 327 326 324 323 320 318 318 317 317
340 339 339 338 336 336 335 334 328 327 328 328 328 325 324 326 326 327 328 329 330 330 329 328 328 326 324 323 320 318 318 318 317
339 339 339 338 337 335 333 333 329 326 328 329 328 326 326 326 325 326 327 327 328 329 329 329 329 328 328 327 324 321 319 319 319
339 339 338 337 336 335 333 329 327 326 328 329 327 327 327 326 324 324 325 325 326 325 329 329 329 329 329 328 328 327 326 323 321
339 339 338 337 337 336 334 327 324 326 328 328 327 327 327 326 325 322 323 323 323 322 323 327 330 330 329 329 328 328 328 327 327
339 339 338 337 336 335 335 329 321 325 326 326 326 327 327 326 325 322 321 321 321 321 321 322 324 327 327 328 330 330 331 330 329
337 338 338 337 336 334 334 331 322 323 325 324 324 325 327 326 326 325 321 320 320 321 322 322 323 324 326 326 327 328 329 329 328
332 336 336 337 335 333 334 329 321 322 324 321 321 322 325 326 326 325 325 324 323 323 324 325 326 326 326 326 326 326 326 326 326
330 333 335 335 335 333 331 327 319 320 322 323 323 326 324 324 325 325 325 325 326 326 326 326 326 326 326 326 326 326 326 325 325
319 324 332 334 334 332 331 329 321 319 320 323 324 325 328 325 324 325 325 325 326 326 326 327 326 326 326 326 326 325 324 324 325
316 324 328 332 333 331 330 331 324 319 320 321 323 324 325 328 328 324 325 325 326 326 326 326 325 325 325 325 325 324 324 325 325
316 322 330 331 333 332 329 327 325 320 320 321 323 324 324 324 325 328 325 324 325 326 326 325 324 325 325 326 324 323 324 323 323

GFSFLT1_925_thetae_144.txt.gz
Theta_e
341 339 339 339 341 340 340 339 339 338 335 335 333 329 331 332 331 332 333 330 332 334 331 333 333 331 331 329 329 328 328 328 329
339 338 338 337 340 340 340 339 339 335 334 334 329 329 331 332 331 330 332 332 332 331 330 329 329 329 329 330 328 328 328 328 328
336 338 339 336 339 340 339 336 333 330 332 330 329 329 330 331 331 331 335 330 332 331 328 330 329 329 328 328 328 327 327 328 328
340 341 338 337 339 340 337 333 332 331 330 326 328 328 329 330 330 331 333 329 331 330 329 329 328 329 328 327 327 327 328 328 328
338 338 336 337 339 339 338 336 335 330 327 326 327 327 328 330 331 330 331 329 330 329 330 329 329 328 328 328 327 327 328 328 327
341 340 338 338 337 339 337 336 336 332 327 326 326 326 328 330 330 329 329 329 331 330 330 330 329 328 328 328 328 327 327 327 325
341 342 338 338 338 338 336 333 334 332 331 329 327 327 328 330 330 330 329 330 331 331 330 330 329 329 326 324 325 325 324 321 320
340 339 340 337 338 339 337 334 334 333 331 329 328 327 328 329 329 330 329 331 331 331 330 329 328 327 324 323 322 320 320 318 318
340 339 340 340 339 339 338 335 333 334 331 329 329 327 327 329 329 329 329 331 331 331 330 329 325 324 323 322 320 318 318 318 317
342 341 340 340 339 339 338 337 334 332 331 328 329 328 327 328 328 329 328 329 330 331 330 329 328 326 325 324 320 318 318 318 318
342 341 340 340 340 339 338 337 334 332 330 328 329 328 327 327 328 328 329 329 329 329 330 329 329 329 328 328 325 322 320 319 319
342 341 341 340 340 338 337 337 334 331 330 327 328 328 328 328 328 327 327 328 328 328 329 329 329 329 329 329 328 327 326 326 325
341 341 340 339 338 338 337 336 334 331 329 327 328 328 328 329 328 327 327 327 327 326 325 328 330 329 329 329 328 328 328 329 328
338 340 340 339 338 337 336 334 331 329 327 326 327 328 328 329 328 327 326 326 327 327 326 323 326 328 328 329 331 332 332 331 330
334 339 340 339 338 336 335 335 331 327 326 326 326 328 328 329 328 327 326 325 326 326 326 325 324 322 324 326 327 328 328 329 329
325 336 336 338 338 336 334 334 331 326 325 325 325 326 327 328 328 328 327 325 324 325 325 326 327 327 324 325 326 326 326 326 326
322 328 335 337 337 336 334 332 330 326 325 325 324 326 326 326 327 327 327 326 326 326 326 327 327 328 328 328 327 326 326 326 326
321 324 330 334 335 335 333 332 328 327 324 324 325 326 327 327 326 327 327 326 327 327 327 327 328 328 328 328 327 326 326 325 324
320 322 326 329 333 335 333 331 329 326 323 322 324 324 325 327 327 327 327 326 326 327 328 328 328 328 328 327 327 326 325 324 325
319 320 322 327 332 332 333 330 328 327 324 323 322 325 325 326 326 327 326 326 326 327 328 327 327 326 326 326 325 326 324 324 324

GFSFLT1_925_thetae_150.txt.gz
Theta_e
340 339 338 342 340 340 340 340 338 335 332 325 327 331 332 333 333 333 334 334 334 332 332 332 331 331 330 329 330 329 329 329 329
339 337 337 339 340 339 339 339 337 335 333 325 326 331 332 332 332 331 332 332 332 331 332 330 332 330 329 329 329 329 328 328 328
340 335 336 336 340 339 339 339 338 335 333 327 327 331 332 332 332 331 330 330 330 331 330 330 330 331 330 329 328 328 329 329 327
340 335 337 336 337 339 339 338 337 332 330 325 325 330 331 331 331 332 330 329 330 331 329 328 330 329 328 329 329 329 328 329 328
336 332 337 338 336 338 339 337 333 330 327 323 322 326 330 331 331 333 330 329 330 329 328 329 329 329 329 328 328 328 328 328 327
333 334 338 340 336 338 339 335 332 331 327 323 322 325 330 331 330 332 330 328 330 330 329 330 330 329 328 326 327 325 324 324 322
337 338 342 340 336 338 338 336 333 332 328 324 323 321 328 329 330 331 331 328 329 330 330 330 329 327 325 324 324 323 322 320 319
341 339 339 340 337 338 338 337 336 333 333 327 322 320 328 329 330 330 330 327 330 330 329 328 328 325 323 322 322 320 319 318 318
341 339 340 339 337 338 339 337 336 334 333 331 328 321 327 328 329 330 330 327 330 330 331 327 325 324 322 322 321 320 318 318 318
341 340 340 340 338 338 339 338 336 335 333 333 330 328 327 327 329 329 329 327 330 330 330 330 329 326 325 325 322 320 319 319 319
341 341 342 340 340 338 339 338 337 336 335 333 330 328 327 327 328 329 330 326 328 329 330 330 330 329 329 328 326 323 321 321 321
342 341 340 341 339 339 339 339 336 336 334 334 332 328 328 327 327 328 329 329 326 328 330 330 330 330 330 330 329 328 326 327 327
334 340 341 340 341 339 340 339 337 336 335 333 332 328 327 328 327 327 328 329 328 326 328 328 329 330 330 330 329 330 328 329 329
327 329 337 338 340 340 338 339 338 337 336 333 332 329 327 327 326 327 327 327 328 328 325 324 325 327 328 329 330 330 331 331 331
319 327 331 336 338 337 338 339 338 337 336 334 332 329 327 328 327 328 328 327 327 328 328 327 324 322 324 326 330 331 332 331 331
318 322 329 335 336 336 337 338 338 338 336 334 330 329 327 328 328 328 328 327 326 326 326 327 327 326 323 320 321 322 324 325 326
317 319 323 331 337 337 336 337 337 337 336 333 329 327 327 328 328 329 329 328 327 326 326 325 326 327 325 325 324 322 322 325 326
317 318 320 329 332 336 336 336 336 336 335 332 328 326 327 324 327 328 329 329 328 326 325 324 325 326 325 327 327 328 325 325 326
314 318 318 320 329 333 335 336 335 334 334 332 328 327 326 326 326 327 328 329 328 327 326 325 324 324 325 327 327 328 328 327 327
315 316 318 319 319 329 331 334 334 333 333 330 328 327 327 326 325 324 325 328 328 327 327 327 326 326 325 326 328 328 328 328 327